Time,TemperatureF,DewpointF,PressureIn,WindDirection,WindDirectionDegrees,WindSpeedMPH,WindSpeedGustMPH,Humidity,HourlyPrecipIn,Conditions,Clouds,dailyrainin,SoftwareType,DateUTC
2013-06-23 00:00:00,71.7,68.0,30.11,East,101,1.5,1.5,88,0.00,,,0.00,VWS V14.01,2013-06-23 04:00:00,
2013-06-23 00:01:00,71.6,68.2,30.11,East,101,1.5,1.5,89,0.00,,,0.00,VWS V14.01,2013-06-23 04:01:00,
2013-06-23 00:02:00,71.7,68.3,30.11,East,101,3.0,3.0,89,0.00,,,0.00,VWS V14.01,2013-06-23 04:02:00,
2013-06-23 00:03:00,71.7,68.3,30.11,East,101,1.5,3.0,89,0.00,,,0.00,VWS V14.01,2013-06-23 04:03:00,
2013-06-23 00:04:00,71.7,68.3,30.11,East,101,1.5,3.0,89,0.00,,,0.00,VWS V14.01,2013-06-23 04:04:00,
2013-06-23 00:05:00,71.7,68.3,30.11,East,101,1.5,1.5,89,0.00,,,0.00,VWS V14.01,2013-06-23 04:05:00,
2013-06-23 00:06:00,71.6,68.2,30.11,East,101,1.5,1.5,89,0.00,,,0.00,VWS V14.01,2013-06-23 04:06:00,
2013-06-23 00:07:00,71.6,68.2,30.11,East,101,1.5,1.5,89,0.00,,,0.00,VWS V14.01,2013-06-23 04:07:00,
2013-06-23 00:08:00,71.6,68.2,30.11,East,101,1.5,1.5,89,0.00,,,0.00,VWS V14.01,2013-06-23 04:08:00,
2013-06-23 00:09:00,71.5,68.1,30.11,East,101,1.5,1.5,89,0.00,,,0.00,VWS V14.01,2013-06-23 04:09:00,
2013-06-23 00:10:00,71.5,68.1,30.11,East,101,1.5,1.5,89,0.00,,,0.00,VWS V14.01,2013-06-23 04:10:00,
2013-06-23 00:11:00,71.4,68.0,30.11,East,101,1.5,1.5,89,0.00,,,0.00,VWS V14.01,2013-06-23 04:11:00,
2013-06-23 00:12:00,71.4,68.0,30.11,East,101,1.5,1.5,89,0.00,,,0.00,VWS V14.01,2013-06-23 04:12:00,
2013-06-23 00:13:00,71.4,68.3,30.11,East,101,1.5,1.5,90,0.00,,,0.00,VWS V14.01,2013-06-23 04:13:00,
2013-06-23 00:14:00,71.4,68.3,30.11,East,101,1.5,1.5,90,0.00,,,0.00,VWS V14.01,2013-06-23 04:14:00,
2013-06-23 00:15:00,71.3,68.2,30.11,East,101,1.5,1.5,90,0.00,,,0.00,VWS V14.01,2013-06-23 04:15:00,
2013-06-23 00:16:00,71.3,68.2,30.11,East,101,1.5,1.5,90,0.00,,,0.00,VWS V14.01,2013-06-23 04:16:00,
2013-06-23 00:17:00,71.3,68.2,30.11,East,98,3.0,3.0,90,0.00,,,0.00,VWS V14.01,2013-06-23 04:17:00,
2013-06-23 00:18:00,71.3,68.2,30.11,East,98,1.5,3.0,90,0.00,,,0.00,VWS V14.01,2013-06-23 04:18:00,
2013-06-23 00:19:00,71.3,68.2,30.11,East,98,1.5,3.0,90,0.00,,,0.00,VWS V14.01,2013-06-23 04:19:00,
2013-06-23 00:20:00,71.3,68.2,30.11,East,98,1.5,3.0,90,0.00,,,0.00,VWS V14.01,2013-06-23 04:20:00,
2013-06-23 00:21:00,71.2,68.1,30.11,East,98,1.5,1.5,90,0.00,,,0.00,VWS V14.01,2013-06-23 04:21:00,
2013-06-23 00:22:00,71.2,68.1,30.11,ESE,111,1.5,3.0,90,0.00,,,0.00,VWS V14.01,2013-06-23 04:22:00,
2013-06-23 00:23:00,71.2,68.1,30.11,ESE,111,1.5,3.0,90,0.00,,,0.00,VWS V14.01,2013-06-23 04:23:00,
2013-06-23 00:24:00,71.1,68.0,30.11,SSE,156,3.0,3.0,90,0.00,,,0.00,VWS V14.01,2013-06-23 04:24:00,
2013-06-23 00:25:00,71.1,68.3,30.11,SSE,161,1.5,3.0,91,0.00,,,0.00,VWS V14.01,2013-06-23 04:25:00,
2013-06-23 00:26:00,71.1,68.3,30.11,SSE,162,1.5,3.0,91,0.00,,,0.00,VWS V14.01,2013-06-23 04:26:00,
2013-06-23 00:27:00,71.1,68.3,30.11,SSE,161,1.5,3.0,91,0.00,,,0.00,VWS V14.01,2013-06-23 04:27:00,
2013-06-23 00:28:00,71.1,68.3,30.11,SSE,161,1.5,1.5,91,0.00,,,0.00,VWS V14.01,2013-06-23 04:28:00,
2013-06-23 00:29:00,71.1,68.3,30.11,SSE,161,1.5,1.5,91,0.00,,,0.00,VWS V14.01,2013-06-23 04:29:00,
2013-06-23 00:30:00,71.1,68.3,30.11,SSE,162,1.5,1.5,91,0.00,,,0.00,VWS V14.01,2013-06-23 04:30:00,
2013-06-23 00:31:00,71.0,68.2,30.11,SSE,162,1.5,1.5,91,0.00,,,0.00,VWS V14.01,2013-06-23 04:31:00,
2013-06-23 00:32:00,71.0,68.2,30.11,SSE,161,1.5,1.5,91,0.00,,,0.00,VWS V14.01,2013-06-23 04:32:00,
2013-06-23 00:33:00,71.0,68.2,30.11,SSE,162,1.5,1.5,91,0.00,,,0.00,VWS V14.01,2013-06-23 04:33:00,
2013-06-23 00:34:00,70.9,68.2,30.11,SSE,161,1.5,1.5,91,0.00,,,0.00,VWS V14.01,2013-06-23 04:34:00,
2013-06-23 00:35:00,70.9,68.2,30.11,SSE,161,1.5,1.5,91,0.00,,,0.00,VWS V14.01,2013-06-23 04:35:00,
2013-06-23 00:36:00,70.8,68.1,30.11,SSE,161,1.5,1.5,91,0.00,,,0.00,VWS V14.01,2013-06-23 04:36:00,
2013-06-23 00:37:00,70.8,68.1,30.11,SSE,162,1.5,1.5,91,0.00,,,0.00,VWS V14.01,2013-06-23 04:37:00,
2013-06-23 00:38:00,70.8,68.1,30.11,SSE,161,1.5,1.5,91,0.00,,,0.00,VWS V14.01,2013-06-23 04:38:00,
2013-06-23 00:39:00,70.7,67.9,30.11,SSE,162,1.5,1.5,91,0.00,,,0.00,VWS V14.01,2013-06-23 04:39:00,
2013-06-23 00:40:00,70.7,67.9,30.11,SSE,162,1.5,1.5,91,0.00,,,0.00,VWS V14.01,2013-06-23 04:40:00,
2013-06-23 00:41:00,70.6,67.8,30.11,SSE,162,1.5,1.5,91,0.00,,,0.00,VWS V14.01,2013-06-23 04:41:00,
2013-06-23 00:42:00,70.6,68.2,30.11,SSE,161,1.5,1.5,92,0.00,,,0.00,VWS V14.01,2013-06-23 04:42:00,
2013-06-23 00:43:00,70.6,68.2,30.11,SSE,161,1.5,1.5,92,0.00,,,0.00,VWS V14.01,2013-06-23 04:43:00,
2013-06-23 00:44:00,70.6,68.2,30.11,SSE,162,1.5,1.5,92,0.00,,,0.00,VWS V14.01,2013-06-23 04:44:00,
2013-06-23 00:45:00,70.6,68.2,30.11,SSE,162,1.5,1.5,92,0.00,,,0.00,VWS V14.01,2013-06-23 04:45:00,
2013-06-23 00:46:00,70.6,68.2,30.11,SSE,162,1.5,1.5,92,0.00,,,0.00,VWS V14.01,2013-06-23 04:46:00,
2013-06-23 00:47:00,70.6,68.2,30.11,SSE,162,1.5,1.5,92,0.00,,,0.00,VWS V14.01,2013-06-23 04:47:00,
2013-06-23 00:48:00,70.6,67.8,30.11,SSE,162,1.5,1.5,91,0.00,,,0.00,VWS V14.01,2013-06-23 04:48:00,
2013-06-23 00:49:00,70.5,68.1,30.10,SSE,162,1.5,1.5,92,0.00,,,0.00,VWS V14.01,2013-06-23 04:49:00,
2013-06-23 00:50:00,70.5,68.1,30.10,SSE,162,1.5,1.5,92,0.00,,,0.00,VWS V14.01,2013-06-23 04:50:00,
2013-06-23 00:51:00,70.5,68.1,30.10,SSE,162,1.5,1.5,92,0.00,,,0.00,VWS V14.01,2013-06-23 04:51:00,
2013-06-23 00:52:00,70.5,68.1,30.10,SSE,161,1.5,1.5,92,0.00,,,0.00,VWS V14.01,2013-06-23 04:52:00,
2013-06-23 00:53:00,70.5,68.1,30.10,SSE,161,1.5,1.5,92,0.00,,,0.00,VWS V14.01,2013-06-23 04:53:00,
2013-06-23 00:54:00,70.4,68.0,30.10,SSE,162,1.5,1.5,92,0.00,,,0.00,VWS V14.01,2013-06-23 04:54:00,
2013-06-23 00:55:00,70.4,68.0,30.10,SSE,161,1.5,1.5,92,0.00,,,0.00,VWS V14.01,2013-06-23 04:55:00,
2013-06-23 00:56:00,70.3,67.9,30.10,SSE,162,1.5,1.5,92,0.00,,,0.00,VWS V14.01,2013-06-23 04:56:00,
2013-06-23 00:57:00,70.3,67.9,30.10,SSE,161,1.5,1.5,92,0.00,,,0.00,VWS V14.01,2013-06-23 04:57:00,
2013-06-23 00:58:00,70.2,67.8,30.10,SSE,162,1.5,1.5,92,0.00,,,0.00,VWS V14.01,2013-06-23 04:58:00,
2013-06-23 00:59:00,70.2,67.8,30.10,SSE,161,1.5,1.5,92,0.00,,,0.00,VWS V14.01,2013-06-23 04:59:00,
2013-06-23 01:00:00,70.2,67.8,30.10,SSE,162,1.5,1.5,92,0.00,,,0.00,VWS V14.01,2013-06-23 05:00:00,
2013-06-23 01:01:00,70.1,67.7,30.10,SSE,162,1.5,1.5,92,0.00,,,0.00,VWS V14.01,2013-06-23 05:01:00,
2013-06-23 01:02:00,70.1,68.0,30.10,SSE,162,1.5,1.5,93,0.00,,,0.00,VWS V14.01,2013-06-23 05:02:00,
2013-06-23 01:03:00,70.1,68.0,30.10,SSE,161,1.5,1.5,93,0.00,,,0.00,VWS V14.01,2013-06-23 05:03:00,
2013-06-23 01:04:00,70.1,68.0,30.10,SSE,161,1.5,1.5,93,0.00,,,0.00,VWS V14.01,2013-06-23 05:04:00,
2013-06-23 01:05:00,70.1,68.0,30.10,SSE,162,1.5,1.5,93,0.00,,,0.00,VWS V14.01,2013-06-23 05:05:00,
2013-06-23 01:06:00,70.1,68.0,30.10,SSE,162,1.5,1.5,93,0.00,,,0.00,VWS V14.01,2013-06-23 05:06:00,
2013-06-23 01:07:00,70.1,68.0,30.10,SSE,161,1.5,1.5,93,0.00,,,0.00,VWS V14.01,2013-06-23 05:07:00,
2013-06-23 01:08:00,70.1,68.0,30.10,SSE,161,1.5,1.5,93,0.00,,,0.00,VWS V14.01,2013-06-23 05:08:00,
2013-06-23 01:09:00,70.1,68.0,30.10,SSE,162,1.5,1.5,93,0.00,,,0.00,VWS V14.01,2013-06-23 05:09:00,
2013-06-23 01:10:00,70.1,68.0,30.10,SSE,162,1.5,1.5,93,0.00,,,0.00,VWS V14.01,2013-06-23 05:10:00,
2013-06-23 01:11:00,70.1,68.0,30.09,SSE,162,1.5,1.5,93,0.00,,,0.00,VWS V14.01,2013-06-23 05:11:00,
2013-06-23 01:12:00,70.1,68.0,30.09,SSE,162,1.5,1.5,93,0.00,,,0.00,VWS V14.01,2013-06-23 05:12:00,
2013-06-23 01:13:00,70.1,68.0,30.10,SSE,162,1.5,1.5,93,0.00,,,0.00,VWS V14.01,2013-06-23 05:13:00,
2013-06-23 01:14:00,70.1,68.0,30.10,SSE,161,1.5,1.5,93,0.00,,,0.00,VWS V14.01,2013-06-23 05:14:00,
2013-06-23 01:15:00,70.1,68.0,30.10,SSE,161,1.5,1.5,93,0.00,,,0.00,VWS V14.01,2013-06-23 05:15:00,
2013-06-23 01:16:00,70.1,68.0,30.10,SSE,161,1.5,3.0,93,0.00,,,0.00,VWS V14.01,2013-06-23 05:16:00,
2013-06-23 01:17:00,70.0,67.9,30.10,SSE,162,1.5,3.0,93,0.00,,,0.00,VWS V14.01,2013-06-23 05:17:00,
2013-06-23 01:18:00,70.0,67.9,30.10,SE,136,3.0,3.0,93,0.00,,,0.00,VWS V14.01,2013-06-23 05:18:00,
2013-06-23 01:19:00,70.0,67.9,30.10,SE,136,1.5,3.0,93,0.00,,,0.00,VWS V14.01,2013-06-23 05:19:00,
2013-06-23 01:20:00,70.0,67.9,30.09,SE,136,3.0,3.0,93,0.00,,,0.00,VWS V14.01,2013-06-23 05:20:00,
2013-06-23 01:21:00,70.0,67.9,30.09,SE,133,1.5,3.0,93,0.00,,,0.00,VWS V14.01,2013-06-23 05:21:00,
2013-06-23 01:22:00,70.0,68.2,30.09,SE,146,1.5,3.0,94,0.00,,,0.00,VWS V14.01,2013-06-23 05:22:00,
2013-06-23 01:23:00,70.0,68.2,30.09,SE,146,1.5,3.0,94,0.00,,,0.00,VWS V14.01,2013-06-23 05:23:00,
2013-06-23 01:24:00,70.0,68.2,30.09,SE,146,1.5,1.5,94,0.00,,,0.00,VWS V14.01,2013-06-23 05:24:00,
2013-06-23 01:25:00,69.9,68.1,30.09,SE,139,1.5,1.5,94,0.00,,,0.00,VWS V14.01,2013-06-23 05:25:00,
2013-06-23 01:26:00,69.9,68.1,30.09,SE,139,1.5,3.0,94,0.00,,,0.00,VWS V14.01,2013-06-23 05:26:00,
2013-06-23 01:27:00,69.9,68.1,30.09,SE,139,1.5,3.0,94,0.00,,,0.00,VWS V14.01,2013-06-23 05:27:00,
2013-06-23 01:28:00,69.9,68.1,30.09,SE,139,1.5,3.0,94,0.00,,,0.00,VWS V14.01,2013-06-23 05:28:00,
2013-06-23 01:29:00,69.9,68.1,30.09,SE,139,1.5,3.0,94,0.00,,,0.00,VWS V14.01,2013-06-23 05:29:00,
2013-06-23 01:30:00,69.9,68.1,30.09,SE,141,1.5,3.0,94,0.00,,,0.00,VWS V14.01,2013-06-23 05:30:00,
2013-06-23 01:31:00,69.8,68.0,30.09,SE,133,1.5,3.0,94,0.00,,,0.00,VWS V14.01,2013-06-23 05:31:00,
2013-06-23 01:32:00,69.9,68.1,30.09,SE,130,1.5,3.0,94,0.00,,,0.00,VWS V14.01,2013-06-23 05:32:00,
2013-06-23 01:33:00,69.9,68.1,30.09,SE,130,1.5,3.0,94,0.00,,,0.00,VWS V14.01,2013-06-23 05:33:00,
2013-06-23 01:34:00,69.9,68.1,30.09,SE,130,1.5,3.0,94,0.00,,,0.00,VWS V14.01,2013-06-23 05:34:00,
2013-06-23 01:35:00,69.9,68.1,30.09,SE,130,1.5,3.0,94,0.00,,,0.00,VWS V14.01,2013-06-23 05:35:00,
2013-06-23 01:36:00,69.9,68.1,30.09,SE,130,1.5,1.5,94,0.00,,,0.00,VWS V14.01,2013-06-23 05:36:00,
2013-06-23 01:37:00,69.9,68.1,30.09,SE,131,1.5,1.5,94,0.00,,,0.00,VWS V14.01,2013-06-23 05:37:00,
2013-06-23 01:38:00,69.8,68.0,30.09,SE,130,1.5,1.5,94,0.00,,,0.00,VWS V14.01,2013-06-23 05:38:00,
2013-06-23 01:39:00,69.8,68.0,30.09,SE,131,1.5,1.5,94,0.00,,,0.00,VWS V14.01,2013-06-23 05:39:00,
2013-06-23 01:40:00,69.8,68.0,30.09,SE,130,1.5,1.5,94,0.00,,,0.00,VWS V14.01,2013-06-23 05:40:00,
2013-06-23 01:41:00,69.7,67.9,30.09,SE,131,1.5,1.5,94,0.00,,,0.00,VWS V14.01,2013-06-23 05:41:00,
2013-06-23 01:42:00,69.7,67.9,30.09,SE,130,1.5,1.5,94,0.00,,,0.00,VWS V14.01,2013-06-23 05:42:00,
2013-06-23 01:43:00,69.7,67.9,30.09,SE,130,1.5,1.5,94,0.00,,,0.00,VWS V14.01,2013-06-23 05:43:00,
2013-06-23 01:44:00,69.8,68.0,30.09,SE,130,1.5,3.0,94,0.00,,,0.00,VWS V14.01,2013-06-23 05:44:00,
2013-06-23 01:45:00,69.8,68.0,30.09,SE,130,1.5,3.0,94,0.00,,,0.00,VWS V14.01,2013-06-23 05:45:00,
2013-06-23 01:46:00,69.7,67.9,30.10,SE,130,1.5,3.0,94,0.00,,,0.00,VWS V14.01,2013-06-23 05:46:00,
2013-06-23 01:47:00,69.7,67.9,30.09,SE,130,1.5,1.5,94,0.00,,,0.00,VWS V14.01,2013-06-23 05:47:00,
2013-06-23 01:48:00,69.7,67.9,30.09,SE,130,1.5,1.5,94,0.00,,,0.00,VWS V14.01,2013-06-23 05:48:00,
2013-06-23 01:49:00,69.7,67.9,30.09,SE,130,1.5,1.5,94,0.00,,,0.00,VWS V14.01,2013-06-23 05:49:00,
2013-06-23 01:50:00,69.6,67.8,30.09,SE,130,1.5,1.5,94,0.00,,,0.00,VWS V14.01,2013-06-23 05:50:00,
2013-06-23 01:51:00,69.6,67.8,30.09,SE,130,1.5,1.5,94,0.00,,,0.00,VWS V14.01,2013-06-23 05:51:00,
2013-06-23 01:52:00,69.5,67.7,30.09,SE,130,1.5,1.5,94,0.00,,,0.00,VWS V14.01,2013-06-23 05:52:00,
2013-06-23 01:53:00,69.5,67.7,30.09,SE,130,1.5,1.5,94,0.00,,,0.00,VWS V14.01,2013-06-23 05:53:00,
2013-06-23 01:54:00,69.5,67.7,30.09,SE,130,1.5,1.5,94,0.00,,,0.00,VWS V14.01,2013-06-23 05:54:00,
2013-06-23 01:55:00,69.5,67.7,30.09,SE,130,1.5,1.5,94,0.00,,,0.00,VWS V14.01,2013-06-23 05:55:00,
2013-06-23 01:56:00,69.5,67.7,30.09,SE,130,1.5,1.5,94,0.00,,,0.00,VWS V14.01,2013-06-23 05:56:00,
2013-06-23 01:57:00,69.5,67.7,30.09,SE,130,1.5,1.5,94,0.00,,,0.00,VWS V14.01,2013-06-23 05:57:00,
2013-06-23 01:58:00,69.5,67.7,30.09,SE,130,1.5,1.5,94,0.00,,,0.00,VWS V14.01,2013-06-23 05:58:00,
2013-06-23 01:59:00,69.5,67.7,30.09,SE,130,1.5,1.5,94,0.00,,,0.00,VWS V14.01,2013-06-23 05:59:00,
2013-06-23 02:00:00,69.5,67.7,30.09,SE,130,1.5,1.5,94,0.00,,,0.00,VWS V14.01,2013-06-23 06:00:00,
2013-06-23 02:01:00,69.5,67.7,30.09,SE,130,1.5,1.5,94,0.00,,,0.00,VWS V14.01,2013-06-23 06:01:00,
2013-06-23 02:02:00,69.5,67.7,30.09,SE,130,1.5,1.5,94,0.00,,,0.00,VWS V14.01,2013-06-23 06:02:00,
2013-06-23 02:03:00,69.5,67.7,30.10,SE,130,1.5,1.5,94,0.00,,,0.00,VWS V14.01,2013-06-23 06:03:00,
2013-06-23 02:04:00,69.5,67.7,30.10,SE,140,1.5,1.5,94,0.00,,,0.00,VWS V14.01,2013-06-23 06:04:00,
2013-06-23 02:05:00,69.6,68.1,30.10,SSE,148,1.5,1.5,95,0.00,,,0.00,VWS V14.01,2013-06-23 06:05:00,
2013-06-23 02:06:00,69.6,68.1,30.09,SSE,167,1.5,1.5,95,0.00,,,0.00,VWS V14.01,2013-06-23 06:06:00,
2013-06-23 02:07:00,69.6,68.1,30.09,SSE,167,1.5,1.5,95,0.00,,,0.00,VWS V14.01,2013-06-23 06:07:00,
2013-06-23 02:08:00,69.7,68.2,30.09,SSE,167,1.5,1.5,95,0.00,,,0.00,VWS V14.01,2013-06-23 06:08:00,
2013-06-23 02:09:00,69.7,67.9,30.09,SSE,167,1.5,1.5,94,0.00,,,0.00,VWS V14.01,2013-06-23 06:09:00,
2013-06-23 02:10:00,69.7,67.9,30.09,SSE,167,1.5,1.5,94,0.00,,,0.00,VWS V14.01,2013-06-23 06:10:00,
2013-06-23 02:11:00,69.7,67.9,30.09,SSE,167,1.5,1.5,94,0.00,,,0.00,VWS V14.01,2013-06-23 06:11:00,
2013-06-23 02:12:00,69.7,67.9,30.09,SSE,167,1.5,1.5,94,0.00,,,0.00,VWS V14.01,2013-06-23 06:12:00,
2013-06-23 02:13:00,69.7,67.9,30.09,SSE,150,1.5,1.5,94,0.00,,,0.00,VWS V14.01,2013-06-23 06:13:00,
2013-06-23 02:14:00,69.7,67.9,30.09,SSE,150,1.5,1.5,94,0.00,,,0.00,VWS V14.01,2013-06-23 06:14:00,
2013-06-23 02:15:00,69.7,67.9,30.09,SSE,150,1.5,1.5,94,0.00,,,0.00,VWS V14.01,2013-06-23 06:15:00,
2013-06-23 02:16:00,69.7,67.9,30.09,SSE,150,1.5,1.5,94,0.00,,,0.00,VWS V14.01,2013-06-23 06:16:00,
2013-06-23 02:17:00,69.7,67.9,30.09,SSE,150,1.5,1.5,94,0.00,,,0.00,VWS V14.01,2013-06-23 06:17:00,
2013-06-23 02:18:00,69.7,67.9,30.09,SSE,150,1.5,1.5,94,0.00,,,0.00,VWS V14.01,2013-06-23 06:18:00,
2013-06-23 02:19:00,69.7,67.9,30.09,SSE,150,1.5,1.5,94,0.00,,,0.00,VWS V14.01,2013-06-23 06:19:00,
2013-06-23 02:20:00,69.7,67.9,30.09,SSE,150,1.5,1.5,94,0.00,,,0.00,VWS V14.01,2013-06-23 06:20:00,
2013-06-23 02:21:00,69.7,67.9,30.09,SSE,150,1.5,1.5,94,0.00,,,0.00,VWS V14.01,2013-06-23 06:21:00,
2013-06-23 02:22:00,69.7,67.9,30.09,SSE,150,1.5,1.5,94,0.00,,,0.00,VWS V14.01,2013-06-23 06:22:00,
2013-06-23 02:23:00,69.7,67.9,30.09,SSE,150,1.5,1.5,94,0.00,,,0.00,VWS V14.01,2013-06-23 06:23:00,
2013-06-23 02:24:00,69.7,67.9,30.09,SSE,150,1.5,1.5,94,0.00,,,0.00,VWS V14.01,2013-06-23 06:24:00,
2013-06-23 02:25:00,69.7,67.9,30.09,SSE,150,1.5,1.5,94,0.00,,,0.00,VWS V14.01,2013-06-23 06:25:00,
2013-06-23 02:26:00,69.7,67.9,30.09,SSE,150,1.5,1.5,94,0.00,,,0.00,VWS V14.01,2013-06-23 06:26:00,
2013-06-23 02:27:00,69.7,67.9,30.09,SSE,150,3.0,3.0,94,0.00,,,0.00,VWS V14.01,2013-06-23 06:27:00,
2013-06-23 02:28:00,69.7,67.9,30.09,SSE,150,1.5,3.0,94,0.00,,,0.00,VWS V14.01,2013-06-23 06:28:00,
2013-06-23 02:29:00,69.7,67.9,30.09,SSE,150,1.5,3.0,94,0.00,,,0.00,VWS V14.01,2013-06-23 06:29:00,
2013-06-23 02:30:00,69.7,67.9,30.09,SSE,150,1.5,3.0,94,0.00,,,0.00,VWS V14.01,2013-06-23 06:30:00,
2013-06-23 02:31:00,69.7,67.9,30.09,SSE,150,1.5,1.5,94,0.00,,,0.00,VWS V14.01,2013-06-23 06:31:00,
2013-06-23 02:32:00,69.7,67.9,30.09,SSE,149,1.5,1.5,94,0.00,,,0.00,VWS V14.01,2013-06-23 06:32:00,
2013-06-23 02:33:00,69.7,67.9,30.08,SSE,150,1.5,1.5,94,0.00,,,0.00,VWS V14.01,2013-06-23 06:33:00,
2013-06-23 02:34:00,69.7,67.9,30.08,SSE,150,1.5,1.5,94,0.00,,,0.00,VWS V14.01,2013-06-23 06:34:00,
2013-06-23 02:35:00,69.7,67.6,30.09,SSE,150,1.5,1.5,93,0.00,,,0.00,VWS V14.01,2013-06-23 06:35:00,
2013-06-23 02:36:00,69.6,67.5,30.08,SSE,150,1.5,1.5,93,0.00,,,0.00,VWS V14.01,2013-06-23 06:36:00,
2013-06-23 02:37:00,69.6,67.5,30.08,SSE,150,1.5,1.5,93,0.00,,,0.00,VWS V14.01,2013-06-23 06:37:00,
2013-06-23 02:38:00,69.6,67.5,30.08,SSE,150,1.5,1.5,93,0.00,,,0.00,VWS V14.01,2013-06-23 06:38:00,
2013-06-23 02:39:00,69.5,67.4,30.08,SSE,150,1.5,1.5,93,0.00,,,0.00,VWS V14.01,2013-06-23 06:39:00,
2013-06-23 02:40:00,69.5,67.4,30.08,SSE,149,1.5,1.5,93,0.00,,,0.00,VWS V14.01,2013-06-23 06:40:00,
2013-06-23 02:41:00,69.4,67.6,30.08,SSE,150,1.5,1.5,94,0.00,,,0.00,VWS V14.01,2013-06-23 06:41:00,
2013-06-23 02:42:00,69.4,67.6,30.08,SSE,150,1.5,1.5,94,0.00,,,0.00,VWS V14.01,2013-06-23 06:42:00,
2013-06-23 02:43:00,69.4,67.6,30.08,SSE,150,1.5,1.5,94,0.00,,,0.00,VWS V14.01,2013-06-23 06:43:00,
2013-06-23 02:44:00,69.4,67.6,30.08,SSE,150,1.5,1.5,94,0.00,,,0.00,VWS V14.01,2013-06-23 06:44:00,
2013-06-23 02:45:00,69.3,67.5,30.08,SSE,150,1.5,1.5,94,0.00,,,0.00,VWS V14.01,2013-06-23 06:45:00,
2013-06-23 02:46:00,69.3,67.5,30.08,SSE,150,1.5,1.5,94,0.00,,,0.00,VWS V14.01,2013-06-23 06:46:00,
2013-06-23 02:47:00,69.2,67.4,30.08,SSE,150,1.5,1.5,94,0.00,,,0.00,VWS V14.01,2013-06-23 06:47:00,
2013-06-23 02:48:00,69.2,67.4,30.08,SSE,150,1.5,1.5,94,0.00,,,0.00,VWS V14.01,2013-06-23 06:48:00,
2013-06-23 02:49:00,69.2,67.4,30.08,SSE,150,1.5,1.5,94,0.00,,,0.00,VWS V14.01,2013-06-23 06:49:00,
2013-06-23 02:50:00,69.2,67.4,30.08,SSE,150,1.5,1.5,94,0.00,,,0.00,VWS V14.01,2013-06-23 06:50:00,
2013-06-23 02:51:00,69.1,67.3,30.08,SSE,150,1.5,1.5,94,0.00,,,0.00,VWS V14.01,2013-06-23 06:51:00,
2013-06-23 02:52:00,69.1,67.3,30.08,SSE,150,1.5,1.5,94,0.00,,,0.00,VWS V14.01,2013-06-23 06:52:00,
2013-06-23 02:53:00,69.1,67.3,30.08,SSE,150,1.5,1.5,94,0.00,,,0.00,VWS V14.01,2013-06-23 06:53:00,
2013-06-23 02:54:00,69.1,67.3,30.08,SSE,150,1.5,1.5,94,0.00,,,0.00,VWS V14.01,2013-06-23 06:54:00,
2013-06-23 02:55:00,69.1,67.3,30.08,SSE,150,1.5,1.5,94,0.00,,,0.00,VWS V14.01,2013-06-23 06:55:00,
2013-06-23 02:56:00,69.0,67.2,30.08,SSE,150,1.5,1.5,94,0.00,,,0.00,VWS V14.01,2013-06-23 06:56:00,
2013-06-23 02:57:00,69.0,67.2,30.08,SSE,150,1.5,1.5,94,0.00,,,0.00,VWS V14.01,2013-06-23 06:57:00,
2013-06-23 02:58:00,69.0,67.2,30.08,SSE,150,1.5,1.5,94,0.00,,,0.00,VWS V14.01,2013-06-23 06:58:00,
2013-06-23 02:59:00,69.0,67.2,30.08,SSE,150,1.5,1.5,94,0.00,,,0.00,VWS V14.01,2013-06-23 06:59:00,
2013-06-23 03:00:00,68.9,67.1,30.08,SSE,150,1.5,1.5,94,0.00,,,0.00,VWS V14.01,2013-06-23 07:00:00,
2013-06-23 03:01:00,68.9,67.1,30.08,SSE,150,1.5,1.5,94,0.00,,,0.00,VWS V14.01,2013-06-23 07:01:00,
2013-06-23 03:02:00,68.9,67.1,30.08,SSE,150,1.5,1.5,94,0.00,,,0.00,VWS V14.01,2013-06-23 07:02:00,
2013-06-23 03:03:00,68.8,67.0,30.08,SSE,150,1.5,1.5,94,0.00,,,0.00,VWS V14.01,2013-06-23 07:03:00,
2013-06-23 03:04:00,68.8,67.0,30.08,SSE,150,1.5,1.5,94,0.00,,,0.00,VWS V14.01,2013-06-23 07:04:00,
2013-06-23 03:05:00,68.8,67.0,30.08,SSE,150,1.5,1.5,94,0.00,,,0.00,VWS V14.01,2013-06-23 07:05:00,
2013-06-23 03:06:00,68.8,67.0,30.08,SSE,150,1.5,1.5,94,0.00,,,0.00,VWS V14.01,2013-06-23 07:06:00,
2013-06-23 03:07:00,68.9,67.1,30.08,SSE,150,1.5,1.5,94,0.00,,,0.00,VWS V14.01,2013-06-23 07:07:00,
2013-06-23 03:08:00,68.9,67.1,30.08,SSE,150,1.5,1.5,94,0.00,,,0.00,VWS V14.01,2013-06-23 07:08:00,
2013-06-23 03:09:00,68.9,67.1,30.08,SSE,150,1.5,1.5,94,0.00,,,0.00,VWS V14.01,2013-06-23 07:09:00,
2013-06-23 03:10:00,68.9,67.1,30.08,SSE,150,1.5,1.5,94,0.00,,,0.00,VWS V14.01,2013-06-23 07:10:00,
2013-06-23 03:11:00,68.9,67.1,30.08,SSE,150,1.5,1.5,94,0.00,,,0.00,VWS V14.01,2013-06-23 07:11:00,
2013-06-23 03:12:00,68.9,67.1,30.08,SSE,150,1.5,1.5,94,0.00,,,0.00,VWS V14.01,2013-06-23 07:12:00,
2013-06-23 03:13:00,68.9,67.1,30.08,SSE,150,1.5,1.5,94,0.00,,,0.00,VWS V14.01,2013-06-23 07:13:00,
2013-06-23 03:14:00,68.9,67.1,30.08,SSE,150,1.5,1.5,94,0.00,,,0.00,VWS V14.01,2013-06-23 07:14:00,
2013-06-23 03:15:00,68.9,67.1,30.08,SSE,150,1.5,1.5,94,0.00,,,0.00,VWS V14.01,2013-06-23 07:15:00,
2013-06-23 03:16:00,68.9,67.1,30.08,SSE,150,1.5,1.5,94,0.00,,,0.00,VWS V14.01,2013-06-23 07:16:00,
2013-06-23 03:17:00,68.9,67.1,30.08,SSE,150,1.5,1.5,94,0.00,,,0.00,VWS V14.01,2013-06-23 07:17:00,
2013-06-23 03:18:00,69.0,66.9,30.08,SSE,150,1.5,1.5,93,0.00,,,0.00,VWS V14.01,2013-06-23 07:18:00,
2013-06-23 03:19:00,69.0,66.9,30.08,SSE,150,1.5,1.5,93,0.00,,,0.00,VWS V14.01,2013-06-23 07:19:00,
2013-06-23 03:20:00,69.0,66.9,30.08,SSE,150,1.5,1.5,93,0.00,,,0.00,VWS V14.01,2013-06-23 07:20:00,
2013-06-23 03:21:00,69.0,66.9,30.08,SSE,150,1.5,1.5,93,0.00,,,0.00,VWS V14.01,2013-06-23 07:21:00,
2013-06-23 03:22:00,69.0,66.9,30.08,SSE,150,1.5,1.5,93,0.00,,,0.00,VWS V14.01,2013-06-23 07:22:00,
2013-06-23 03:23:00,69.0,66.9,30.08,SSE,150,1.5,1.5,93,0.00,,,0.00,VWS V14.01,2013-06-23 07:23:00,
2013-06-23 03:24:00,69.0,66.9,30.08,SSE,150,1.5,1.5,93,0.00,,,0.00,VWS V14.01,2013-06-23 07:24:00,
2013-06-23 03:25:00,69.0,66.9,30.08,SSE,149,1.5,1.5,93,0.00,,,0.00,VWS V14.01,2013-06-23 07:25:00,
2013-06-23 03:26:00,68.9,66.8,30.08,SSE,149,1.5,1.5,93,0.00,,,0.00,VWS V14.01,2013-06-23 07:26:00,
2013-06-23 03:27:00,68.9,66.8,30.08,SSE,150,1.5,1.5,93,0.00,,,0.00,VWS V14.01,2013-06-23 07:27:00,
2013-06-23 03:28:00,68.9,66.8,30.08,SSE,150,1.5,1.5,93,0.00,,,0.00,VWS V14.01,2013-06-23 07:28:00,
2013-06-23 03:29:00,68.9,66.8,30.08,SSE,150,1.5,1.5,93,0.00,,,0.00,VWS V14.01,2013-06-23 07:29:00,
2013-06-23 03:30:00,68.9,66.8,30.08,SSE,150,1.5,1.5,93,0.00,,,0.00,VWS V14.01,2013-06-23 07:30:00,
2013-06-23 03:31:00,68.9,66.8,30.08,SSE,150,1.5,1.5,93,0.00,,,0.00,VWS V14.01,2013-06-23 07:31:00,
2013-06-23 03:32:00,68.9,66.8,30.08,SSE,150,1.5,1.5,93,0.00,,,0.00,VWS V14.01,2013-06-23 07:32:00,
2013-06-23 03:33:00,68.9,66.8,30.08,SSE,150,1.5,1.5,93,0.00,,,0.00,VWS V14.01,2013-06-23 07:33:00,
2013-06-23 03:34:00,68.9,66.8,30.08,SSE,150,1.5,1.5,93,0.00,,,0.00,VWS V14.01,2013-06-23 07:34:00,
2013-06-23 03:35:00,68.9,66.8,30.08,SSE,150,1.5,1.5,93,0.00,,,0.00,VWS V14.01,2013-06-23 07:35:00,
2013-06-23 03:36:00,68.9,66.8,30.08,SSE,149,1.5,1.5,93,0.00,,,0.00,VWS V14.01,2013-06-23 07:36:00,
2013-06-23 03:37:00,68.9,66.8,30.08,SSE,150,1.5,1.5,93,0.00,,,0.00,VWS V14.01,2013-06-23 07:37:00,
2013-06-23 03:38:00,68.8,66.7,30.08,SSE,150,1.5,1.5,93,0.00,,,0.00,VWS V14.01,2013-06-23 07:38:00,
2013-06-23 03:39:00,68.8,66.7,30.08,SSE,150,1.5,1.5,93,0.00,,,0.00,VWS V14.01,2013-06-23 07:39:00,
2013-06-23 03:40:00,68.8,66.7,30.08,SSE,150,1.5,1.5,93,0.00,,,0.00,VWS V14.01,2013-06-23 07:40:00,
2013-06-23 03:41:00,68.8,66.7,30.08,SSE,150,1.5,1.5,93,0.00,,,0.00,VWS V14.01,2013-06-23 07:41:00,
2013-06-23 03:42:00,68.8,66.7,30.08,SSE,150,1.5,1.5,93,0.00,,,0.00,VWS V14.01,2013-06-23 07:42:00,
2013-06-23 03:43:00,68.7,66.6,30.08,SSE,150,1.5,1.5,93,0.00,,,0.00,VWS V14.01,2013-06-23 07:43:00,
2013-06-23 03:44:00,68.7,66.6,30.08,SSE,150,1.5,1.5,93,0.00,,,0.00,VWS V14.01,2013-06-23 07:44:00,
2013-06-23 03:45:00,68.6,66.5,30.08,SSE,150,1.5,1.5,93,0.00,,,0.00,VWS V14.01,2013-06-23 07:45:00,
2013-06-23 03:46:00,68.6,66.5,30.08,SSE,150,1.5,1.5,93,0.00,,,0.00,VWS V14.01,2013-06-23 07:46:00,
2013-06-23 03:47:00,68.5,66.4,30.08,SSE,150,1.5,1.5,93,0.00,,,0.00,VWS V14.01,2013-06-23 07:47:00,
2013-06-23 03:48:00,68.5,66.4,30.08,SSE,150,1.5,1.5,93,0.00,,,0.00,VWS V14.01,2013-06-23 07:48:00,
2013-06-23 03:49:00,68.4,66.3,30.08,SSE,150,1.5,1.5,93,0.00,,,0.00,VWS V14.01,2013-06-23 07:49:00,
2013-06-23 03:50:00,68.3,66.2,30.08,SSE,150,1.5,1.5,93,0.00,,,0.00,VWS V14.01,2013-06-23 07:50:00,
2013-06-23 03:51:00,68.3,66.2,30.08,SSE,150,1.5,1.5,93,0.00,,,0.00,VWS V14.01,2013-06-23 07:51:00,
2013-06-23 03:52:00,68.2,66.1,30.08,SSE,150,1.5,1.5,93,0.00,,,0.00,VWS V14.01,2013-06-23 07:52:00,
2013-06-23 03:53:00,68.2,66.1,30.08,SSE,150,1.5,1.5,93,0.00,,,0.00,VWS V14.01,2013-06-23 07:53:00,
2013-06-23 03:54:00,68.2,66.1,30.08,SSE,150,1.5,1.5,93,0.00,,,0.00,VWS V14.01,2013-06-23 07:54:00,
2013-06-23 03:55:00,68.1,66.0,30.08,SSE,150,1.5,1.5,93,0.00,,,0.00,VWS V14.01,2013-06-23 07:55:00,
2013-06-23 03:56:00,68.1,66.3,30.08,SSE,150,1.5,1.5,94,0.00,,,0.00,VWS V14.01,2013-06-23 07:56:00,
2013-06-23 03:57:00,68.1,66.3,30.08,SSE,150,1.5,1.5,94,0.00,,,0.00,VWS V14.01,2013-06-23 07:57:00,
2013-06-23 03:58:00,68.1,66.3,30.08,SSE,150,1.5,1.5,94,0.00,,,0.00,VWS V14.01,2013-06-23 07:58:00,
2013-06-23 03:59:00,68.1,66.3,30.08,SSE,150,1.5,1.5,94,0.00,,,0.00,VWS V14.01,2013-06-23 07:59:00,
2013-06-23 04:00:00,68.1,66.3,30.08,SSE,150,1.5,1.5,94,0.00,,,0.00,VWS V14.01,2013-06-23 08:00:00,
2013-06-23 04:01:00,68.1,66.3,30.08,SSE,150,1.5,1.5,94,0.00,,,0.00,VWS V14.01,2013-06-23 08:01:00,
2013-06-23 04:02:00,68.1,66.3,30.08,SSE,150,1.5,1.5,94,0.00,,,0.00,VWS V14.01,2013-06-23 08:02:00,
2013-06-23 04:03:00,68.1,66.6,30.08,SSE,150,1.5,1.5,95,0.00,,,0.00,VWS V14.01,2013-06-23 08:03:00,
2013-06-23 04:04:00,68.1,66.6,30.08,SSE,150,1.5,1.5,95,0.00,,,0.00,VWS V14.01,2013-06-23 08:04:00,
2013-06-23 04:05:00,68.2,66.7,30.08,SSE,150,1.5,1.5,95,0.00,,,0.00,VWS V14.01,2013-06-23 08:05:00,
2013-06-23 04:06:00,68.2,66.7,30.08,SSE,150,1.5,1.5,95,0.00,,,0.00,VWS V14.01,2013-06-23 08:06:00,
2013-06-23 04:07:00,68.2,66.7,30.08,SSE,150,1.5,1.5,95,0.00,,,0.00,VWS V14.01,2013-06-23 08:07:00,
2013-06-23 04:08:00,68.2,66.7,30.08,SSE,150,1.5,1.5,95,0.00,,,0.00,VWS V14.01,2013-06-23 08:08:00,
2013-06-23 04:09:00,68.1,66.6,30.08,SSE,150,1.5,1.5,95,0.00,,,0.00,VWS V14.01,2013-06-23 08:09:00,
2013-06-23 04:10:00,68.1,66.6,30.08,SSE,149,1.5,1.5,95,0.00,,,0.00,VWS V14.01,2013-06-23 08:10:00,
2013-06-23 04:11:00,68.0,66.5,30.08,SSE,150,1.5,1.5,95,0.00,,,0.00,VWS V14.01,2013-06-23 08:11:00,
2013-06-23 04:12:00,68.0,66.5,30.08,SSE,150,1.5,1.5,95,0.00,,,0.00,VWS V14.01,2013-06-23 08:12:00,
2013-06-23 04:13:00,68.0,66.5,30.08,SSE,150,1.5,1.5,95,0.00,,,0.00,VWS V14.01,2013-06-23 08:13:00,
2013-06-23 04:14:00,68.0,66.5,30.08,SSE,150,1.5,1.5,95,0.00,,,0.00,VWS V14.01,2013-06-23 08:14:00,
2013-06-23 04:15:00,68.0,66.5,30.08,SSE,149,1.5,1.5,95,0.00,,,0.00,VWS V14.01,2013-06-23 08:15:00,
2013-06-23 04:16:00,68.1,66.6,30.08,SSE,150,1.5,1.5,95,0.00,,,0.00,VWS V14.01,2013-06-23 08:16:00,
2013-06-23 04:17:00,68.0,66.5,30.08,SSE,149,1.5,1.5,95,0.00,,,0.00,VWS V14.01,2013-06-23 08:17:00,
2013-06-23 04:18:00,68.1,66.6,30.08,SSE,150,1.5,1.5,95,0.00,,,0.00,VWS V14.01,2013-06-23 08:18:00,
2013-06-23 04:19:00,68.0,66.5,30.08,SSE,150,1.5,1.5,95,0.00,,,0.00,VWS V14.01,2013-06-23 08:19:00,
2013-06-23 04:20:00,68.1,66.6,30.08,SSE,150,1.5,1.5,95,0.00,,,0.00,VWS V14.01,2013-06-23 08:20:00,
2013-06-23 04:21:00,68.1,66.6,30.08,SSE,149,1.5,1.5,95,0.00,,,0.00,VWS V14.01,2013-06-23 08:21:00,
2013-06-23 04:22:00,68.0,66.5,30.09,SSE,150,1.5,1.5,95,0.00,,,0.00,VWS V14.01,2013-06-23 08:22:00,
2013-06-23 04:23:00,68.1,66.6,30.09,SSE,150,1.5,1.5,95,0.00,,,0.00,VWS V14.01,2013-06-23 08:23:00,
2013-06-23 04:24:00,68.0,66.5,30.08,SSE,150,1.5,1.5,95,0.00,,,0.00,VWS V14.01,2013-06-23 08:24:00,
2013-06-23 04:25:00,68.0,66.5,30.08,SSE,150,1.5,1.5,95,0.00,,,0.00,VWS V14.01,2013-06-23 08:25:00,
2013-06-23 04:26:00,68.0,66.5,30.08,SE,127,1.5,1.5,95,0.00,,,0.00,VWS V14.01,2013-06-23 08:26:00,
2013-06-23 04:27:00,68.0,66.8,30.09,SE,127,1.5,1.5,96,0.00,,,0.00,VWS V14.01,2013-06-23 08:27:00,
2013-06-23 04:28:00,68.1,66.9,30.09,SE,128,1.5,1.5,96,0.00,,,0.00,VWS V14.01,2013-06-23 08:28:00,
2013-06-23 04:29:00,68.1,66.9,30.09,SE,128,1.5,1.5,96,0.00,,,0.00,VWS V14.01,2013-06-23 08:29:00,
2013-06-23 04:30:00,68.1,66.9,30.09,SE,127,1.5,1.5,96,0.00,,,0.00,VWS V14.01,2013-06-23 08:30:00,
2013-06-23 04:31:00,68.1,66.9,30.09,SE,127,1.5,1.5,96,0.00,,,0.00,VWS V14.01,2013-06-23 08:31:00,
2013-06-23 04:32:00,68.1,66.9,30.09,SE,127,1.5,1.5,96,0.00,,,0.00,VWS V14.01,2013-06-23 08:32:00,
2013-06-23 04:33:00,68.1,66.9,30.09,SE,127,1.5,1.5,96,0.00,,,0.00,VWS V14.01,2013-06-23 08:33:00,
2013-06-23 04:34:00,68.1,66.9,30.09,SE,128,3.0,3.0,96,0.00,,,0.00,VWS V14.01,2013-06-23 08:34:00,
2013-06-23 04:35:00,68.1,66.9,30.09,ESE,116,3.0,3.0,96,0.00,,,0.00,VWS V14.01,2013-06-23 08:35:00,
2013-06-23 04:36:00,68.1,66.9,30.09,ESE,111,4.5,4.5,96,0.00,,,0.00,VWS V14.01,2013-06-23 08:36:00,
2013-06-23 04:37:00,68.1,66.9,30.09,ESE,120,3.0,4.5,96,0.00,,,0.00,VWS V14.01,2013-06-23 08:37:00,
2013-06-23 04:38:00,68.1,66.9,30.09,ESE,108,3.0,4.5,96,0.00,,,0.00,VWS V14.01,2013-06-23 08:38:00,
2013-06-23 04:39:00,68.1,66.9,30.09,ESE,113,3.0,4.5,96,0.00,,,0.00,VWS V14.01,2013-06-23 08:39:00,
2013-06-23 04:40:00,68.0,66.8,30.09,ESE,113,3.0,3.0,96,0.00,,,0.00,VWS V14.01,2013-06-23 08:40:00,
2013-06-23 04:41:00,68.0,66.8,30.09,SE,133,3.0,4.5,96,0.00,,,0.00,VWS V14.01,2013-06-23 08:41:00,
2013-06-23 04:42:00,68.0,66.8,30.09,SE,134,1.5,4.5,96,0.00,,,0.00,VWS V14.01,2013-06-23 08:42:00,
2013-06-23 04:43:00,68.0,66.8,30.10,SE,133,1.5,4.5,96,0.00,,,0.00,VWS V14.01,2013-06-23 08:43:00,
2013-06-23 04:44:00,68.0,66.8,30.10,SE,133,1.5,3.0,96,0.00,,,0.00,VWS V14.01,2013-06-23 08:44:00,
2013-06-23 04:45:00,67.9,66.7,30.10,SE,133,1.5,1.5,96,0.00,,,0.00,VWS V14.01,2013-06-23 08:45:00,
2013-06-23 04:46:00,67.9,66.7,30.10,SE,133,1.5,1.5,96,0.00,,,0.00,VWS V14.01,2013-06-23 08:46:00,
2013-06-23 04:47:00,67.9,66.7,30.10,SE,134,1.5,1.5,96,0.00,,,0.00,VWS V14.01,2013-06-23 08:47:00,
2013-06-23 04:48:00,67.9,66.7,30.10,SE,133,1.5,1.5,96,0.00,,,0.00,VWS V14.01,2013-06-23 08:48:00,
2013-06-23 04:49:00,67.9,66.7,30.10,SE,133,1.5,1.5,96,0.00,,,0.00,VWS V14.01,2013-06-23 08:49:00,
2013-06-23 04:50:00,67.8,66.6,30.10,SE,133,1.5,1.5,96,0.00,,,0.00,VWS V14.01,2013-06-23 08:50:00,
2013-06-23 04:51:00,67.8,66.6,30.10,SE,133,1.5,1.5,96,0.00,,,0.00,VWS V14.01,2013-06-23 08:51:00,
2013-06-23 04:52:00,67.8,66.6,30.10,SE,134,1.5,1.5,96,0.00,,,0.00,VWS V14.01,2013-06-23 08:52:00,
2013-06-23 04:53:00,67.7,66.5,30.10,SE,133,1.5,1.5,96,0.00,,,0.00,VWS V14.01,2013-06-23 08:53:00,
2013-06-23 04:54:00,67.7,66.5,30.10,SE,133,1.5,1.5,96,0.00,,,0.00,VWS V14.01,2013-06-23 08:54:00,
2013-06-23 04:55:00,67.7,66.5,30.10,SE,133,1.5,1.5,96,0.00,,,0.00,VWS V14.01,2013-06-23 08:55:00,
2013-06-23 04:56:00,67.7,66.5,30.10,SE,133,1.5,1.5,96,0.00,,,0.00,VWS V14.01,2013-06-23 08:56:00,
2013-06-23 04:57:00,67.7,66.5,30.10,SE,133,1.5,1.5,96,0.00,,,0.00,VWS V14.01,2013-06-23 08:57:00,
2013-06-23 04:58:00,67.7,66.5,30.11,SE,133,1.5,1.5,96,0.00,,,0.00,VWS V14.01,2013-06-23 08:58:00,
2013-06-23 04:59:00,67.7,66.5,30.11,SE,134,1.5,1.5,96,0.00,,,0.00,VWS V14.01,2013-06-23 08:59:00,
2013-06-23 05:00:00,67.7,66.5,30.11,SE,133,1.5,1.5,96,0.00,,,0.00,VWS V14.01,2013-06-23 09:00:00,
2013-06-23 05:01:00,67.6,66.4,30.11,SE,133,1.5,1.5,96,0.00,,,0.00,VWS V14.01,2013-06-23 09:01:00,
2013-06-23 05:02:00,67.6,66.4,30.11,SE,134,1.5,1.5,96,0.00,,,0.00,VWS V14.01,2013-06-23 09:02:00,
2013-06-23 05:03:00,67.6,66.4,30.11,SE,133,1.5,1.5,96,0.00,,,0.00,VWS V14.01,2013-06-23 09:03:00,
2013-06-23 05:04:00,67.6,66.4,30.11,SE,133,1.5,1.5,96,0.00,,,0.00,VWS V14.01,2013-06-23 09:04:00,
2013-06-23 05:05:00,67.6,66.4,30.11,SE,133,1.5,1.5,96,0.00,,,0.00,VWS V14.01,2013-06-23 09:05:00,
2013-06-23 05:06:00,67.7,66.5,30.11,SE,133,1.5,1.5,96,0.00,,,0.00,VWS V14.01,2013-06-23 09:06:00,
2013-06-23 05:07:00,67.7,66.5,30.11,SE,133,1.5,1.5,96,0.00,,,0.00,VWS V14.01,2013-06-23 09:07:00,
2013-06-23 05:08:00,67.7,66.5,30.11,SE,133,1.5,1.5,96,0.00,,,0.00,VWS V14.01,2013-06-23 09:08:00,
2013-06-23 05:09:00,67.7,66.5,30.11,SE,133,1.5,1.5,96,0.00,,,0.00,VWS V14.01,2013-06-23 09:09:00,
2013-06-23 05:10:00,67.7,66.5,30.11,SE,133,1.5,1.5,96,0.00,,,0.00,VWS V14.01,2013-06-23 09:10:00,
2013-06-23 05:11:00,67.8,66.6,30.11,SE,134,1.5,1.5,96,0.00,,,0.00,VWS V14.01,2013-06-23 09:11:00,
2013-06-23 05:12:00,67.8,66.6,30.11,SE,134,1.5,1.5,96,0.00,,,0.00,VWS V14.01,2013-06-23 09:12:00,
2013-06-23 05:13:00,67.8,66.6,30.11,SE,134,1.5,1.5,96,0.00,,,0.00,VWS V14.01,2013-06-23 09:13:00,
2013-06-23 05:14:00,67.8,66.6,30.11,SE,133,1.5,1.5,96,0.00,,,0.00,VWS V14.01,2013-06-23 09:14:00,
2013-06-23 05:15:00,67.7,66.5,30.11,SE,133,1.5,1.5,96,0.00,,,0.00,VWS V14.01,2013-06-23 09:15:00,
2013-06-23 05:16:00,67.7,66.5,30.12,SE,133,1.5,1.5,96,0.00,,,0.00,VWS V14.01,2013-06-23 09:16:00,
2013-06-23 05:17:00,67.6,66.4,30.11,SE,134,1.5,1.5,96,0.00,,,0.00,VWS V14.01,2013-06-23 09:17:00,
2013-06-23 05:18:00,67.6,66.4,30.11,SE,133,1.5,1.5,96,0.00,,,0.00,VWS V14.01,2013-06-23 09:18:00,
2013-06-23 05:19:00,67.6,66.4,30.12,SE,133,1.5,1.5,96,0.00,,,0.00,VWS V14.01,2013-06-23 09:19:00,
2013-06-23 05:20:00,67.5,66.3,30.12,SE,133,1.5,1.5,96,0.00,,,0.00,VWS V14.01,2013-06-23 09:20:00,
2013-06-23 05:21:00,67.5,66.3,30.12,SE,134,1.5,1.5,96,0.00,,,0.00,VWS V14.01,2013-06-23 09:21:00,
2013-06-23 05:22:00,67.5,66.3,30.12,SE,133,1.5,1.5,96,0.00,,,0.00,VWS V14.01,2013-06-23 09:22:00,
2013-06-23 05:23:00,67.5,66.3,30.12,SE,134,1.5,1.5,96,0.00,,,0.00,VWS V14.01,2013-06-23 09:23:00,
2013-06-23 05:24:00,67.5,66.3,30.12,SE,133,1.5,1.5,96,0.00,,,0.00,VWS V14.01,2013-06-23 09:24:00,
2013-06-23 05:25:00,67.5,66.3,30.12,SE,133,1.5,1.5,96,0.00,,,0.00,VWS V14.01,2013-06-23 09:25:00,
2013-06-23 05:26:00,67.4,66.2,30.12,SE,133,1.5,1.5,96,0.00,,,0.00,VWS V14.01,2013-06-23 09:26:00,
2013-06-23 05:27:00,67.4,66.2,30.12,SE,134,1.5,1.5,96,0.00,,,0.00,VWS V14.01,2013-06-23 09:27:00,
2013-06-23 05:28:00,67.4,66.2,30.12,SE,134,1.5,1.5,96,0.00,,,0.00,VWS V14.01,2013-06-23 09:28:00,
2013-06-23 05:29:00,67.4,66.2,30.12,SE,133,1.5,1.5,96,0.00,,,0.00,VWS V14.01,2013-06-23 09:29:00,
2013-06-23 05:30:00,67.4,66.2,30.12,SE,134,1.5,1.5,96,0.00,,,0.00,VWS V14.01,2013-06-23 09:30:00,
2013-06-23 05:31:00,67.3,66.1,30.12,SE,133,1.5,1.5,96,0.00,,,0.00,VWS V14.01,2013-06-23 09:31:00,
2013-06-23 05:32:00,67.3,66.1,30.12,SE,134,1.5,1.5,96,0.00,,,0.00,VWS V14.01,2013-06-23 09:32:00,
2013-06-23 05:33:00,67.2,66.0,30.12,SE,133,1.5,1.5,96,0.00,,,0.00,VWS V14.01,2013-06-23 09:33:00,
2013-06-23 05:34:00,67.2,66.0,30.12,SE,133,1.5,1.5,96,0.00,,,0.00,VWS V14.01,2013-06-23 09:34:00,
2013-06-23 05:35:00,67.1,65.9,30.12,SE,133,1.5,1.5,96,0.00,,,0.00,VWS V14.01,2013-06-23 09:35:00,
2013-06-23 05:36:00,67.1,65.9,30.12,SE,133,1.5,1.5,96,0.00,,,0.00,VWS V14.01,2013-06-23 09:36:00,
2013-06-23 05:37:00,67.0,65.8,30.12,SE,133,1.5,1.5,96,0.00,,,0.00,VWS V14.01,2013-06-23 09:37:00,
2013-06-23 05:38:00,67.0,65.8,30.12,SE,134,1.5,1.5,96,0.00,,,0.00,VWS V14.01,2013-06-23 09:38:00,
2013-06-23 05:39:00,67.0,65.8,30.12,SE,133,1.5,1.5,96,0.00,,,0.00,VWS V14.01,2013-06-23 09:39:00,
2013-06-23 05:40:00,67.0,65.8,30.12,SE,134,1.5,1.5,96,0.00,,,0.00,VWS V14.01,2013-06-23 09:40:00,
2013-06-23 05:41:00,67.0,65.8,30.12,SE,133,1.5,1.5,96,0.00,,,0.00,VWS V14.01,2013-06-23 09:41:00,
2013-06-23 05:42:00,67.0,65.8,30.12,SE,133,1.5,1.5,96,0.00,,,0.00,VWS V14.01,2013-06-23 09:42:00,
2013-06-23 05:43:00,67.0,65.8,30.12,SE,133,1.5,1.5,96,0.00,,,0.00,VWS V14.01,2013-06-23 09:43:00,
2013-06-23 05:44:00,66.9,65.7,30.12,SE,133,1.5,1.5,96,0.00,,,0.00,VWS V14.01,2013-06-23 09:44:00,
2013-06-23 05:45:00,67.0,65.8,30.12,SE,134,1.5,1.5,96,0.00,,,0.00,VWS V14.01,2013-06-23 09:45:00,
2013-06-23 05:46:00,67.0,65.8,30.12,SE,133,1.5,1.5,96,0.00,,,0.00,VWS V14.01,2013-06-23 09:46:00,
2013-06-23 05:47:00,67.0,65.8,30.12,SE,133,1.5,1.5,96,0.00,,,0.00,VWS V14.01,2013-06-23 09:47:00,
2013-06-23 05:48:00,67.0,65.8,30.12,SE,134,1.5,1.5,96,0.00,,,0.00,VWS V14.01,2013-06-23 09:48:00,
2013-06-23 05:49:00,67.0,65.8,30.12,SE,133,1.5,1.5,96,0.00,,,0.00,VWS V14.01,2013-06-23 09:49:00,
2013-06-23 05:50:00,67.1,65.9,30.13,SE,133,1.5,1.5,96,0.00,,,0.00,VWS V14.01,2013-06-23 09:50:00,
2013-06-23 05:51:00,67.1,65.9,30.13,SE,134,1.5,1.5,96,0.00,,,0.00,VWS V14.01,2013-06-23 09:51:00,
2013-06-23 05:52:00,67.1,65.9,30.13,SE,133,1.5,1.5,96,0.00,,,0.00,VWS V14.01,2013-06-23 09:52:00,
2013-06-23 05:53:00,67.1,65.9,30.12,SE,134,1.5,1.5,96,0.00,,,0.00,VWS V14.01,2013-06-23 09:53:00,
2013-06-23 05:54:00,67.1,65.9,30.12,SE,134,1.5,1.5,96,0.00,,,0.00,VWS V14.01,2013-06-23 09:54:00,
2013-06-23 05:55:00,67.1,65.9,30.13,SE,133,1.5,1.5,96,0.00,,,0.00,VWS V14.01,2013-06-23 09:55:00,
2013-06-23 05:56:00,67.1,65.9,30.12,SE,130,1.5,3.0,96,0.00,,,0.00,VWS V14.01,2013-06-23 09:56:00,
2013-06-23 05:57:00,67.2,66.3,30.12,SE,130,1.5,3.0,97,0.00,,,0.00,VWS V14.01,2013-06-23 09:57:00,
2013-06-23 05:58:00,67.2,66.3,30.13,SE,130,1.5,3.0,97,0.00,,,0.00,VWS V14.01,2013-06-23 09:58:00,
2013-06-23 05:59:00,67.2,66.0,30.13,SE,130,3.0,3.0,96,0.00,,,0.00,VWS V14.01,2013-06-23 09:59:00,
2013-06-23 06:00:00,67.1,65.9,30.13,SE,130,1.5,3.0,96,0.00,,,0.00,VWS V14.01,2013-06-23 10:00:00,
2013-06-23 06:01:00,67.1,65.9,30.13,SE,130,1.5,3.0,96,0.00,,,0.00,VWS V14.01,2013-06-23 10:01:00,
2013-06-23 06:02:00,67.0,65.8,30.13,SE,130,1.5,1.5,96,0.00,,,0.00,VWS V14.01,2013-06-23 10:02:00,
2013-06-23 06:03:00,67.0,65.8,30.13,SE,130,1.5,1.5,96,0.00,,,0.00,VWS V14.01,2013-06-23 10:03:00,
2013-06-23 06:04:00,66.9,65.7,30.13,SE,130,1.5,1.5,96,0.00,,,0.00,VWS V14.01,2013-06-23 10:04:00,
2013-06-23 06:05:00,66.9,65.7,30.13,SE,130,1.5,1.5,96,0.00,,,0.00,VWS V14.01,2013-06-23 10:05:00,
2013-06-23 06:06:00,66.9,65.7,30.13,SE,130,1.5,1.5,96,0.00,,,0.00,VWS V14.01,2013-06-23 10:06:00,
2013-06-23 06:07:00,66.9,65.7,30.13,SE,130,1.5,1.5,96,0.00,,,0.00,VWS V14.01,2013-06-23 10:07:00,
2013-06-23 06:08:00,66.9,65.7,30.13,SE,130,1.5,1.5,96,0.00,,,0.00,VWS V14.01,2013-06-23 10:08:00,
2013-06-23 06:09:00,67.0,65.8,30.13,SE,131,1.5,1.5,96,0.00,,,0.00,VWS V14.01,2013-06-23 10:09:00,
2013-06-23 06:10:00,67.0,65.8,30.13,SE,130,1.5,1.5,96,0.00,,,0.00,VWS V14.01,2013-06-23 10:10:00,
2013-06-23 06:11:00,67.0,65.8,30.13,SE,130,1.5,1.5,96,0.00,,,0.00,VWS V14.01,2013-06-23 10:11:00,
2013-06-23 06:12:00,67.0,65.8,30.13,SE,130,1.5,1.5,96,0.00,,,0.00,VWS V14.01,2013-06-23 10:12:00,
2013-06-23 06:13:00,67.0,65.8,30.13,ESE,108,4.5,4.5,96,0.00,,,0.00,VWS V14.01,2013-06-23 10:13:00,
2013-06-23 06:14:00,67.0,65.8,30.13,SE,127,1.5,4.5,96,0.00,,,0.00,VWS V14.01,2013-06-23 10:14:00,
2013-06-23 06:15:00,67.0,65.8,30.13,SE,126,1.5,4.5,96,0.00,,,0.00,VWS V14.01,2013-06-23 10:15:00,
2013-06-23 06:16:00,67.0,65.8,30.13,SE,127,1.5,4.5,96,0.00,,,0.00,VWS V14.01,2013-06-23 10:16:00,
2013-06-23 06:17:00,67.0,65.8,30.13,SE,126,1.5,3.0,96,0.00,,,0.00,VWS V14.01,2013-06-23 10:17:00,
2013-06-23 06:18:00,67.0,65.8,30.13,SE,126,1.5,3.0,96,0.00,,,0.00,VWS V14.01,2013-06-23 10:18:00,
2013-06-23 06:19:00,67.0,65.8,30.13,SE,126,1.5,1.5,96,0.00,,,0.00,VWS V14.01,2013-06-23 10:19:00,
2013-06-23 06:20:00,67.0,65.8,30.13,SE,127,3.0,3.0,96,0.00,,,0.00,VWS V14.01,2013-06-23 10:20:00,
2013-06-23 06:21:00,67.0,65.8,30.13,ESE,122,1.5,3.0,96,0.00,,,0.00,VWS V14.01,2013-06-23 10:21:00,
2013-06-23 06:22:00,67.0,65.8,30.13,ESE,113,3.0,3.0,96,0.00,,,0.00,VWS V14.01,2013-06-23 10:22:00,
2013-06-23 06:23:00,67.0,65.8,30.13,ESE,119,3.0,4.5,96,0.00,,,0.00,VWS V14.01,2013-06-23 10:23:00,
2013-06-23 06:24:00,67.0,65.8,30.13,ESE,102,1.5,4.5,96,0.00,,,0.00,VWS V14.01,2013-06-23 10:24:00,
2013-06-23 06:25:00,67.0,65.8,30.13,SE,130,3.0,4.5,96,0.00,,,0.00,VWS V14.01,2013-06-23 10:25:00,
2013-06-23 06:26:00,67.0,65.8,30.13,ESE,114,1.5,4.5,96,0.00,,,0.00,VWS V14.01,2013-06-23 10:26:00,
2013-06-23 06:27:00,67.0,66.1,30.13,ESE,116,3.0,4.5,97,0.00,,,0.00,VWS V14.01,2013-06-23 10:27:00,
2013-06-23 06:28:00,67.0,66.1,30.13,ESE,116,3.0,4.5,97,0.00,,,0.00,VWS V14.01,2013-06-23 10:28:00,
2013-06-23 06:29:00,67.0,66.1,30.13,SE,133,3.0,4.5,97,0.00,,,0.00,VWS V14.01,2013-06-23 10:29:00,
2013-06-23 06:30:00,67.0,66.1,30.14,SE,133,3.0,4.5,97,0.00,,,0.00,VWS V14.01,2013-06-23 10:30:00,
2013-06-23 06:31:00,67.0,66.1,30.14,ESE,116,1.5,4.5,97,0.00,,,0.00,VWS V14.01,2013-06-23 10:31:00,
2013-06-23 06:32:00,67.0,66.1,30.14,ESE,116,1.5,3.0,97,0.00,,,0.00,VWS V14.01,2013-06-23 10:32:00,
2013-06-23 06:33:00,67.0,66.1,30.14,ESE,116,1.5,3.0,97,0.00,,,0.00,VWS V14.01,2013-06-23 10:33:00,
2013-06-23 06:34:00,67.0,66.1,30.14,ESE,116,1.5,3.0,97,0.00,,,0.00,VWS V14.01,2013-06-23 10:34:00,
2013-06-23 06:35:00,67.0,66.1,30.14,ESE,116,1.5,1.5,97,0.00,,,0.00,VWS V14.01,2013-06-23 10:35:00,
2013-06-23 06:36:00,66.9,66.0,30.14,ESE,116,1.5,1.5,97,0.00,,,0.00,VWS V14.01,2013-06-23 10:36:00,
2013-06-23 06:37:00,66.9,66.0,30.14,ESE,116,1.5,1.5,97,0.00,,,0.00,VWS V14.01,2013-06-23 10:37:00,
2013-06-23 06:38:00,66.9,65.7,30.14,ESE,116,1.5,1.5,96,0.00,,,0.00,VWS V14.01,2013-06-23 10:38:00,
2013-06-23 06:39:00,66.9,65.7,30.14,ESE,116,1.5,1.5,96,0.00,,,0.00,VWS V14.01,2013-06-23 10:39:00,
2013-06-23 06:40:00,66.8,65.6,30.14,ESE,117,1.5,1.5,96,0.00,,,0.00,VWS V14.01,2013-06-23 10:40:00,
2013-06-23 06:41:00,66.8,65.6,30.14,ESE,116,1.5,1.5,96,0.00,,,0.00,VWS V14.01,2013-06-23 10:41:00,
2013-06-23 06:42:00,66.8,65.6,30.14,ESE,116,1.5,1.5,96,0.00,,,0.00,VWS V14.01,2013-06-23 10:42:00,
2013-06-23 06:43:00,66.8,65.6,30.14,ESE,116,1.5,1.5,96,0.00,,,0.00,VWS V14.01,2013-06-23 10:43:00,
2013-06-23 06:44:00,66.8,65.6,30.14,ESE,116,1.5,1.5,96,0.00,,,0.00,VWS V14.01,2013-06-23 10:44:00,
2013-06-23 06:45:00,66.8,65.9,30.14,ESE,116,1.5,1.5,97,0.00,,,0.00,VWS V14.01,2013-06-23 10:45:00,
2013-06-23 06:46:00,66.8,65.9,30.14,ESE,116,1.5,1.5,97,0.00,,,0.00,VWS V14.01,2013-06-23 10:46:00,
2013-06-23 06:47:00,66.8,65.9,30.14,ESE,116,1.5,1.5,97,0.00,,,0.00,VWS V14.01,2013-06-23 10:47:00,
2013-06-23 06:48:00,66.8,65.9,30.14,ESE,116,1.5,1.5,97,0.00,,,0.00,VWS V14.01,2013-06-23 10:48:00,
2013-06-23 06:49:00,66.8,65.9,30.14,ESE,116,1.5,1.5,97,0.00,,,0.00,VWS V14.01,2013-06-23 10:49:00,
2013-06-23 06:50:00,66.8,65.9,30.14,ESE,116,1.5,1.5,97,0.00,,,0.00,VWS V14.01,2013-06-23 10:50:00,
2013-06-23 06:51:00,66.8,65.9,30.14,ESE,116,1.5,1.5,97,0.00,,,0.00,VWS V14.01,2013-06-23 10:51:00,
2013-06-23 06:52:00,66.9,66.0,30.14,ESE,116,1.5,1.5,97,0.00,,,0.00,VWS V14.01,2013-06-23 10:52:00,
2013-06-23 06:53:00,66.9,66.0,30.14,ESE,116,1.5,1.5,97,0.00,,,0.00,VWS V14.01,2013-06-23 10:53:00,
2013-06-23 06:54:00,66.9,66.0,30.14,ESE,116,1.5,1.5,97,0.00,,,0.00,VWS V14.01,2013-06-23 10:54:00,
2013-06-23 06:55:00,66.9,66.0,30.14,ESE,116,1.5,1.5,97,0.00,,,0.00,VWS V14.01,2013-06-23 10:55:00,
2013-06-23 06:56:00,66.9,66.0,30.14,ESE,116,1.5,1.5,97,0.00,,,0.00,VWS V14.01,2013-06-23 10:56:00,
2013-06-23 06:57:00,66.9,66.0,30.14,ESE,116,1.5,1.5,97,0.00,,,0.00,VWS V14.01,2013-06-23 10:57:00,
2013-06-23 06:58:00,66.9,66.0,30.14,ESE,116,1.5,1.5,97,0.00,,,0.00,VWS V14.01,2013-06-23 10:58:00,
2013-06-23 06:59:00,66.9,66.0,30.14,ESE,116,1.5,1.5,97,0.00,,,0.00,VWS V14.01,2013-06-23 10:59:00,
2013-06-23 07:00:00,67.0,66.1,30.14,ESE,116,1.5,1.5,97,0.00,,,0.00,VWS V14.01,2013-06-23 11:00:00,
2013-06-23 07:01:00,67.0,66.1,30.14,ESE,116,1.5,1.5,97,0.00,,,0.00,VWS V14.01,2013-06-23 11:01:00,
2013-06-23 07:02:00,67.1,66.2,30.14,ESE,116,1.5,1.5,97,0.00,,,0.00,VWS V14.01,2013-06-23 11:02:00,
2013-06-23 07:03:00,67.2,66.3,30.14,ESE,116,1.5,1.5,97,0.00,,,0.00,VWS V14.01,2013-06-23 11:03:00,
2013-06-23 07:04:00,67.2,66.3,30.14,ESE,116,1.5,1.5,97,0.00,,,0.00,VWS V14.01,2013-06-23 11:04:00,
2013-06-23 07:05:00,67.3,66.4,30.14,ESE,116,1.5,1.5,97,0.00,,,0.00,VWS V14.01,2013-06-23 11:05:00,
2013-06-23 07:06:00,67.4,66.5,30.14,ESE,116,1.5,1.5,97,0.00,,,0.00,VWS V14.01,2013-06-23 11:06:00,
2013-06-23 07:07:00,67.5,66.6,30.14,ESE,116,1.5,1.5,97,0.00,,,0.00,VWS V14.01,2013-06-23 11:07:00,
2013-06-23 07:08:00,67.5,66.6,30.14,ESE,116,1.5,1.5,97,0.00,,,0.00,VWS V14.01,2013-06-23 11:08:00,
2013-06-23 07:09:00,67.6,66.7,30.14,ESE,116,1.5,1.5,97,0.00,,,0.00,VWS V14.01,2013-06-23 11:09:00,
2013-06-23 07:10:00,67.7,66.8,30.14,ESE,116,1.5,1.5,97,0.00,,,0.00,VWS V14.01,2013-06-23 11:10:00,
2013-06-23 07:11:00,67.8,66.9,30.14,ESE,116,1.5,1.5,97,0.00,,,0.00,VWS V14.01,2013-06-23 11:11:00,
2013-06-23 07:12:00,67.8,66.9,30.14,ESE,116,1.5,1.5,97,0.00,,,0.00,VWS V14.01,2013-06-23 11:12:00,
2013-06-23 07:13:00,67.9,67.0,30.14,SSE,149,1.5,1.5,97,0.00,,,0.00,VWS V14.01,2013-06-23 11:13:00,
2013-06-23 07:14:00,68.0,66.8,30.15,SSE,156,1.5,4.5,96,0.00,,,0.00,VWS V14.01,2013-06-23 11:14:00,
2013-06-23 07:15:00,68.0,66.8,30.15,SSE,156,1.5,4.5,96,0.00,,,0.00,VWS V14.01,2013-06-23 11:15:00,
2013-06-23 07:16:00,68.1,66.9,30.15,SSE,156,1.5,4.5,96,0.00,,,0.00,VWS V14.01,2013-06-23 11:16:00,
2013-06-23 07:17:00,68.3,67.1,30.15,SSE,156,1.5,1.5,96,0.00,,,0.00,VWS V14.01,2013-06-23 11:17:00,
2013-06-23 07:18:00,68.3,67.1,30.14,SSE,156,1.5,1.5,96,0.00,,,0.00,VWS V14.01,2013-06-23 11:18:00,
2013-06-23 07:19:00,68.4,67.2,30.15,SSE,156,1.5,1.5,96,0.00,,,0.00,VWS V14.01,2013-06-23 11:19:00,
2013-06-23 07:20:00,68.5,67.3,30.15,SSE,156,1.5,1.5,96,0.00,,,0.00,VWS V14.01,2013-06-23 11:20:00,
2013-06-23 07:21:00,68.6,67.4,30.15,South,169,1.5,3.0,96,0.00,,,0.00,VWS V14.01,2013-06-23 11:21:00,
2013-06-23 07:22:00,68.7,67.5,30.15,SE,134,4.5,4.5,96,0.00,,,0.00,VWS V14.01,2013-06-23 11:22:00,
2013-06-23 07:23:00,68.8,67.3,30.15,SSW,198,3.0,4.5,95,0.00,,,0.00,VWS V14.01,2013-06-23 11:23:00,
2013-06-23 07:24:00,68.9,67.4,30.15,WSW,240,3.0,4.5,95,0.00,,,0.00,VWS V14.01,2013-06-23 11:24:00,
2013-06-23 07:25:00,69.0,67.5,30.15,SSW,192,1.5,4.5,95,0.00,,,0.00,VWS V14.01,2013-06-23 11:25:00,
2013-06-23 07:26:00,69.2,67.4,30.15,SW,216,3.0,4.5,94,0.00,,,0.00,VWS V14.01,2013-06-23 11:26:00,
2013-06-23 07:27:00,69.3,67.5,30.15,SE,128,1.5,4.5,94,0.00,,,0.00,VWS V14.01,2013-06-23 11:27:00,
2013-06-23 07:28:00,69.4,67.3,30.15,WSW,251,1.5,4.5,93,0.00,,,0.00,VWS V14.01,2013-06-23 11:28:00,
2013-06-23 07:29:00,69.5,67.4,30.14,WSW,251,1.5,4.5,93,0.00,,,0.00,VWS V14.01,2013-06-23 11:29:00,
2013-06-23 07:30:00,69.7,67.6,30.14,WSW,251,1.5,4.5,93,0.00,,,0.00,VWS V14.01,2013-06-23 11:30:00,
2013-06-23 07:31:00,69.8,67.7,30.14,WSW,251,1.5,3.0,93,0.00,,,0.00,VWS V14.01,2013-06-23 11:31:00,
2013-06-23 07:32:00,70.0,67.6,30.14,WSW,244,3.0,3.0,92,0.00,,,0.00,VWS V14.01,2013-06-23 11:32:00,
2013-06-23 07:33:00,70.1,67.7,30.14,South,184,3.0,3.0,92,0.00,,,0.00,VWS V14.01,2013-06-23 11:33:00,
2013-06-23 07:34:00,70.2,67.8,30.14,South,184,1.5,3.0,92,0.00,,,0.00,VWS V14.01,2013-06-23 11:34:00,
2013-06-23 07:35:00,70.4,67.7,30.14,South,184,1.5,3.0,91,0.00,,,0.00,VWS V14.01,2013-06-23 11:35:00,
2013-06-23 07:36:00,70.5,67.8,30.14,South,183,1.5,3.0,91,0.00,,,0.00,VWS V14.01,2013-06-23 11:36:00,
2013-06-23 07:37:00,70.6,67.8,30.15,SSE,150,4.5,4.5,91,0.00,,,0.00,VWS V14.01,2013-06-23 11:37:00,
2013-06-23 07:38:00,70.8,67.7,30.15,SSE,156,1.5,4.5,90,0.00,,,0.00,VWS V14.01,2013-06-23 11:38:00,
2013-06-23 07:39:00,70.9,67.8,30.15,SSE,156,1.5,4.5,90,0.00,,,0.00,VWS V14.01,2013-06-23 11:39:00,
2013-06-23 07:40:00,71.0,67.9,30.15,SE,130,4.5,4.5,90,0.00,,,0.00,VWS V14.01,2013-06-23 11:40:00,
2013-06-23 07:41:00,71.1,67.7,30.15,South,175,1.5,4.5,89,0.00,,,0.00,VWS V14.01,2013-06-23 11:41:00,
2013-06-23 07:42:00,71.2,67.8,30.15,South,175,1.5,4.5,89,0.00,,,0.00,VWS V14.01,2013-06-23 11:42:00,
2013-06-23 07:43:00,71.4,68.0,30.15,South,175,1.5,4.5,89,0.00,,,0.00,VWS V14.01,2013-06-23 11:43:00,
2013-06-23 07:44:00,71.5,68.1,30.15,South,175,1.5,1.5,89,0.00,,,0.00,VWS V14.01,2013-06-23 11:44:00,
2013-06-23 07:45:00,71.6,68.2,30.15,South,174,1.5,1.5,89,0.00,,,0.00,VWS V14.01,2013-06-23 11:45:00,
2013-06-23 07:46:00,71.8,68.4,30.15,South,174,1.5,1.5,89,0.00,,,0.00,VWS V14.01,2013-06-23 11:46:00,
2013-06-23 07:47:00,72.0,68.3,30.15,South,174,1.5,1.5,88,0.00,,,0.00,VWS V14.01,2013-06-23 11:47:00,
2013-06-23 07:48:00,72.1,68.3,30.15,South,174,1.5,1.5,88,0.00,,,0.00,VWS V14.01,2013-06-23 11:48:00,
2013-06-23 07:49:00,72.2,68.4,30.15,South,171,1.5,1.5,88,0.00,,,0.00,VWS V14.01,2013-06-23 11:49:00,
2013-06-23 07:50:00,72.5,68.8,30.15,ESE,102,1.5,1.5,88,0.00,,,0.00,VWS V14.01,2013-06-23 11:50:00,
2013-06-23 07:51:00,72.5,68.4,30.15,ESE,103,1.5,1.5,87,0.00,,,0.00,VWS V14.01,2013-06-23 11:51:00,
2013-06-23 07:52:00,72.6,68.5,30.15,ESE,103,1.5,1.5,87,0.00,,,0.00,VWS V14.01,2013-06-23 11:52:00,
2013-06-23 07:53:00,72.7,68.6,30.15,ESE,123,1.5,3.0,87,0.00,,,0.00,VWS V14.01,2013-06-23 11:53:00,
2013-06-23 07:54:00,72.8,68.4,30.15,ESE,123,1.5,3.0,86,0.00,,,0.00,VWS V14.01,2013-06-23 11:54:00,
2013-06-23 07:55:00,72.9,68.5,30.15,SSW,192,1.5,3.0,86,0.00,,,0.00,VWS V14.01,2013-06-23 11:55:00,
2013-06-23 07:56:00,73.0,68.6,30.15,SSW,192,1.5,1.5,86,0.00,,,0.00,VWS V14.01,2013-06-23 11:56:00,
2013-06-23 07:57:00,73.0,68.6,30.15,SSW,192,1.5,1.5,86,0.00,,,0.00,VWS V14.01,2013-06-23 11:57:00,
2013-06-23 07:58:00,73.1,68.7,30.15,SSW,192,1.5,1.5,86,0.00,,,0.00,VWS V14.01,2013-06-23 11:58:00,
2013-06-23 07:59:00,73.2,68.8,30.15,SSW,192,1.5,1.5,86,0.00,,,0.00,VWS V14.01,2013-06-23 11:59:00,
2013-06-23 08:00:00,73.3,68.5,30.15,SSW,192,1.5,1.5,85,0.00,,,0.00,VWS V14.01,2013-06-23 12:00:00,
2013-06-23 08:01:00,73.5,68.7,30.15,SSW,192,1.5,1.5,85,0.00,,,0.00,VWS V14.01,2013-06-23 12:01:00,
2013-06-23 08:02:00,73.6,68.8,30.15,SSW,192,1.5,1.5,85,0.00,,,0.00,VWS V14.01,2013-06-23 12:02:00,
2013-06-23 08:03:00,73.7,68.9,30.15,SE,139,1.5,1.5,85,0.00,,,0.00,VWS V14.01,2013-06-23 12:03:00,
2013-06-23 08:04:00,73.9,68.8,30.15,South,189,1.5,3.0,84,0.00,,,0.00,VWS V14.01,2013-06-23 12:04:00,
2013-06-23 08:05:00,74.0,68.9,30.15,South,189,1.5,3.0,84,0.00,,,0.00,VWS V14.01,2013-06-23 12:05:00,
2013-06-23 08:06:00,74.1,69.0,30.15,SSW,192,1.5,3.0,84,0.00,,,0.00,VWS V14.01,2013-06-23 12:06:00,
2013-06-23 08:07:00,74.2,69.1,30.15,SSW,192,1.5,3.0,84,0.00,,,0.00,VWS V14.01,2013-06-23 12:07:00,
2013-06-23 08:08:00,74.3,69.2,30.15,SSW,192,1.5,3.0,84,0.00,,,0.00,VWS V14.01,2013-06-23 12:08:00,
2013-06-23 08:09:00,74.4,68.9,30.15,SSW,192,1.5,1.5,83,0.00,,,0.00,VWS V14.01,2013-06-23 12:09:00,
2013-06-23 08:10:00,74.5,69.0,30.15,SE,131,1.5,1.5,83,0.00,,,0.00,VWS V14.01,2013-06-23 12:10:00,
2013-06-23 08:11:00,74.7,69.2,30.15,SE,130,1.5,1.5,83,0.00,,,0.00,VWS V14.01,2013-06-23 12:11:00,
2013-06-23 08:12:00,74.9,69.4,30.15,SE,130,1.5,1.5,83,0.00,,,0.00,VWS V14.01,2013-06-23 12:12:00,
2013-06-23 08:13:00,75.0,69.5,30.15,SE,130,1.5,1.5,83,0.00,,,0.00,VWS V14.01,2013-06-23 12:13:00,
2013-06-23 08:14:00,75.1,69.6,30.15,SE,130,1.5,1.5,83,0.00,,,0.00,VWS V14.01,2013-06-23 12:14:00,
2013-06-23 08:15:00,75.3,69.4,30.15,South,179,3.0,3.0,82,0.00,,,0.00,VWS V14.01,2013-06-23 12:15:00,
2013-06-23 08:16:00,75.5,69.6,30.15,SSE,163,1.5,3.0,82,0.00,,,0.00,VWS V14.01,2013-06-23 12:16:00,
2013-06-23 08:17:00,75.5,68.9,30.15,WSW,243,3.0,3.0,80,0.00,,,0.00,VWS V14.01,2013-06-23 12:17:00,
2013-06-23 08:18:00,75.5,68.9,30.15,WSW,241,3.0,3.0,80,0.00,,,0.00,VWS V14.01,2013-06-23 12:18:00,
2013-06-23 08:19:00,75.5,69.3,30.15,WSW,240,1.5,3.0,81,0.00,,,0.00,VWS V14.01,2013-06-23 12:19:00,
2013-06-23 08:20:00,75.5,69.3,30.15,ESE,108,3.0,3.0,81,0.00,,,0.00,VWS V14.01,2013-06-23 12:20:00,
2013-06-23 08:21:00,75.6,69.0,30.15,SE,145,1.5,3.0,80,0.00,,,0.00,VWS V14.01,2013-06-23 12:21:00,
2013-06-23 08:22:00,75.7,69.1,30.15,WSW,240,3.0,3.0,80,0.00,,,0.00,VWS V14.01,2013-06-23 12:22:00,
2013-06-23 08:23:00,75.7,68.7,30.15,WSW,243,1.5,3.0,79,0.00,,,0.00,VWS V14.01,2013-06-23 12:23:00,
2013-06-23 08:24:00,75.7,68.7,30.15,ESE,119,3.0,3.0,79,0.00,,,0.00,VWS V14.01,2013-06-23 12:24:00,
2013-06-23 08:25:00,75.8,68.8,30.15,SW,217,4.5,4.5,79,0.00,,,0.00,VWS V14.01,2013-06-23 12:25:00,
2013-06-23 08:26:00,75.9,68.9,30.15,SSW,213,1.5,4.5,79,0.00,,,0.00,VWS V14.01,2013-06-23 12:26:00,
2013-06-23 08:27:00,75.9,68.9,30.15,SSW,213,1.5,4.5,79,0.00,,,0.00,VWS V14.01,2013-06-23 12:27:00,
2013-06-23 08:28:00,76.0,69.0,30.15,SSW,213,1.5,4.5,79,0.00,,,0.00,VWS V14.01,2013-06-23 12:28:00,
2013-06-23 08:29:00,76.1,69.5,30.15,SSW,213,3.0,3.0,80,0.00,,,0.00,VWS V14.01,2013-06-23 12:29:00,
2013-06-23 08:30:00,76.1,69.1,30.15,SW,215,3.0,3.0,79,0.00,,,0.00,VWS V14.01,2013-06-23 12:30:00,
2013-06-23 08:31:00,76.2,69.2,30.15,SSW,203,3.0,3.0,79,0.00,,,0.00,VWS V14.01,2013-06-23 12:31:00,
2013-06-23 08:32:00,76.2,69.2,30.15,WSW,250,3.0,3.0,79,0.00,,,0.00,VWS V14.01,2013-06-23 12:32:00,
2013-06-23 08:33:00,76.3,69.3,30.15,WSW,250,1.5,3.0,79,0.00,,,0.00,VWS V14.01,2013-06-23 12:33:00,
2013-06-23 08:34:00,76.4,69.0,30.15,WSW,241,3.0,3.0,78,0.00,,,0.00,VWS V14.01,2013-06-23 12:34:00,
2013-06-23 08:35:00,76.4,69.0,30.15,SW,231,1.5,4.5,78,0.00,,,0.00,VWS V14.01,2013-06-23 12:35:00,
2013-06-23 08:36:00,76.5,68.8,30.16,SW,232,3.0,7.5,77,0.00,,,0.00,VWS V14.01,2013-06-23 12:36:00,
2013-06-23 08:37:00,76.5,68.8,30.16,WSW,240,6.0,7.5,77,0.00,,,0.00,VWS V14.01,2013-06-23 12:37:00,
2013-06-23 08:38:00,76.6,68.9,30.15,SSE,161,3.0,7.5,77,0.00,,,0.00,VWS V14.01,2013-06-23 12:38:00,
2013-06-23 08:39:00,76.6,68.9,30.15,SW,226,3.0,6.0,77,0.00,,,0.00,VWS V14.01,2013-06-23 12:39:00,
2013-06-23 08:40:00,76.7,69.3,30.15,SE,141,1.5,6.0,78,0.00,,,0.00,VWS V14.01,2013-06-23 12:40:00,
2013-06-23 08:41:00,76.8,69.1,30.15,SW,231,1.5,4.5,77,0.00,,,0.00,VWS V14.01,2013-06-23 12:41:00,
2013-06-23 08:42:00,76.9,69.2,30.15,SW,231,1.5,4.5,77,0.00,,,0.00,VWS V14.01,2013-06-23 12:42:00,
2013-06-23 08:43:00,77.0,69.6,30.15,SW,231,1.5,4.5,78,0.00,,,0.00,VWS V14.01,2013-06-23 12:43:00,
2013-06-23 08:44:00,77.2,69.4,30.15,SW,227,3.0,4.5,77,0.00,,,0.00,VWS V14.01,2013-06-23 12:44:00,
2013-06-23 08:45:00,77.3,69.2,30.15,SW,220,3.0,4.5,76,0.00,,,0.00,VWS V14.01,2013-06-23 12:45:00,
2013-06-23 08:46:00,77.4,69.2,30.16,SW,229,3.0,4.5,76,0.00,,,0.00,VWS V14.01,2013-06-23 12:46:00,
2013-06-23 08:47:00,77.4,69.2,30.16,SW,226,4.5,4.5,76,0.00,,,0.00,VWS V14.01,2013-06-23 12:47:00,
2013-06-23 08:48:00,77.4,69.2,30.16,WSW,240,3.0,4.5,76,0.00,,,0.00,VWS V14.01,2013-06-23 12:48:00,
2013-06-23 08:49:00,77.5,69.3,30.16,West,267,1.5,4.5,76,0.00,,,0.00,VWS V14.01,2013-06-23 12:49:00,
2013-06-23 08:50:00,77.6,69.4,30.15,West,260,1.5,4.5,76,0.00,,,0.00,VWS V14.01,2013-06-23 12:50:00,
2013-06-23 08:51:00,77.7,69.5,30.15,West,260,1.5,3.0,76,0.00,,,0.00,VWS V14.01,2013-06-23 12:51:00,
2013-06-23 08:52:00,77.8,70.0,30.16,West,260,1.5,3.0,77,0.00,,,0.00,VWS V14.01,2013-06-23 12:52:00,
2013-06-23 08:53:00,78.0,69.8,30.16,SE,146,1.5,3.0,76,0.00,,,0.00,VWS V14.01,2013-06-23 12:53:00,
2013-06-23 08:56:00,78.2,69.2,30.15,SW,228,3.0,7.5,74,0.00,,,0.00,VWS V14.01,2013-06-23 12:56:00,
2013-06-23 09:01:00,77.9,68.9,30.15,SW,217,3.0,7.5,74,0.00,,,0.00,VWS V14.01,2013-06-23 13:01:00,
2013-06-23 09:06:00,78.1,69.1,30.16,WSW,251,10.5,10.5,74,0.00,,,0.00,VWS V14.01,2013-06-23 13:06:00,
2013-06-23 09:11:00,78.1,69.5,30.16,WSW,257,3.0,10.5,75,0.00,,,0.00,VWS V14.01,2013-06-23 13:11:00,
2013-06-23 09:16:00,78.1,69.5,30.16,SSW,209,4.5,7.5,75,0.00,,,0.00,VWS V14.01,2013-06-23 13:16:00,
2013-06-23 09:21:00,78.3,69.3,30.16,SW,223,7.5,9.0,74,0.00,,,0.00,VWS V14.01,2013-06-23 13:21:00,
2013-06-23 09:26:00,78.0,69.1,30.16,West,274,4.5,9.0,74,0.00,,,0.00,VWS V14.01,2013-06-23 13:26:00,
2013-06-23 09:31:00,78.2,69.6,30.16,West,275,4.5,6.0,75,0.00,,,0.00,VWS V14.01,2013-06-23 13:31:00,
2013-06-23 09:36:00,78.5,69.5,30.16,SW,232,1.5,7.5,74,0.00,,,0.00,VWS V14.01,2013-06-23 13:36:00,
2013-06-23 09:41:00,79.2,70.6,30.16,SW,236,3.0,4.5,75,0.00,,,0.00,VWS V14.01,2013-06-23 13:41:00,
2013-06-23 09:46:00,79.2,70.2,30.16,SW,226,4.5,9.0,74,0.00,,,0.00,VWS V14.01,2013-06-23 13:46:00,
2013-06-23 09:51:00,79.6,70.6,30.16,SSE,157,6.0,7.5,74,0.00,,,0.00,VWS V14.01,2013-06-23 13:51:00,
2013-06-23 09:56:00,80.0,71.0,30.16,South,169,6.0,9.0,74,0.00,,,0.00,VWS V14.01,2013-06-23 13:56:00,
2013-06-23 10:01:00,80.2,70.8,30.16,SSW,201,4.5,7.5,73,0.00,,,0.00,VWS V14.01,2013-06-23 14:01:00,
2013-06-23 10:06:00,80.6,70.8,30.16,WSW,237,1.5,7.5,72,0.00,,,0.00,VWS V14.01,2013-06-23 14:06:00,
2013-06-23 10:11:00,81.2,70.9,30.16,WNW,293,4.5,4.5,71,0.00,,,0.00,VWS V14.01,2013-06-23 14:11:00,
2013-06-23 10:16:00,81.4,70.7,30.16,SW,220,6.0,6.0,70,0.00,,,0.00,VWS V14.01,2013-06-23 14:16:00,
2013-06-23 10:21:00,81.3,71.0,30.16,SW,226,6.0,7.5,71,0.00,,,0.00,VWS V14.01,2013-06-23 14:21:00,
2013-06-23 10:26:00,81.7,71.4,30.16,SSE,153,1.5,6.0,71,0.00,,,0.00,VWS V14.01,2013-06-23 14:26:00,
2013-06-23 10:31:00,82.1,71.8,30.16,West,265,6.0,6.0,71,0.00,,,0.00,VWS V14.01,2013-06-23 14:31:00,
2013-06-23 10:36:00,82.5,70.9,30.16,SW,220,3.0,7.5,68,0.00,,,0.00,VWS V14.01,2013-06-23 14:36:00,
2013-06-23 10:41:00,82.6,71.0,30.16,SW,223,6.0,10.5,68,0.00,,,0.00,VWS V14.01,2013-06-23 14:41:00,
2013-06-23 10:46:00,82.8,71.6,30.16,South,191,6.0,10.5,69,0.00,,,0.00,VWS V14.01,2013-06-23 14:46:00,
2013-06-23 10:51:00,83.1,71.4,30.15,WNW,291,6.0,6.0,68,0.00,,,0.00,VWS V14.01,2013-06-23 14:51:00,
2013-06-23 10:56:00,83.4,70.9,30.15,SW,231,6.0,10.5,66,0.00,,,0.00,VWS V14.01,2013-06-23 14:56:00,
2013-06-23 11:01:00,83.3,70.8,30.15,West,274,6.0,10.5,66,0.00,,,0.00,VWS V14.01,2013-06-23 15:01:00,
2013-06-23 11:06:00,83.3,71.2,30.15,WSW,237,9.0,10.5,67,0.00,,,0.00,VWS V14.01,2013-06-23 15:06:00,
2013-06-23 11:11:00,83.6,71.1,30.15,SW,219,4.5,4.5,66,0.00,,,0.00,VWS V14.01,2013-06-23 15:11:00,
2013-06-23 11:16:00,84.0,71.4,30.15,West,266,9.0,12.0,66,0.00,,,0.00,VWS V14.01,2013-06-23 15:16:00,
2013-06-23 11:21:00,83.8,71.2,30.15,WSW,251,6.0,10.5,66,0.00,,,0.00,VWS V14.01,2013-06-23 15:21:00,
2013-06-23 11:26:00,84.1,71.5,30.15,South,189,6.0,6.0,66,0.00,,,0.00,VWS V14.01,2013-06-23 15:26:00,
2013-06-23 11:31:00,84.5,71.0,30.15,SW,231,7.5,12.0,64,0.00,,,0.00,VWS V14.01,2013-06-23 15:31:00,
2013-06-23 11:36:00,84.7,70.7,30.15,SW,219,6.0,10.5,63,0.00,,,0.00,VWS V14.01,2013-06-23 15:36:00,
2013-06-23 11:41:00,84.8,71.3,30.14,SSW,203,7.5,7.5,64,0.00,,,0.00,VWS V14.01,2013-06-23 15:41:00,
2013-06-23 11:46:00,85.2,71.7,30.14,WSW,258,6.0,7.5,64,0.00,,,0.00,VWS V14.01,2013-06-23 15:46:00,
2013-06-23 11:51:00,85.0,70.5,30.14,West,264,16.5,16.5,62,0.00,,,0.00,VWS V14.01,2013-06-23 15:51:00,
2013-06-23 11:56:00,84.9,72.3,30.14,SW,227,16.5,16.5,66,0.00,,,0.00,VWS V14.01,2013-06-23 15:56:00,
2013-06-23 12:02:00,84.7,71.2,30.13,WSW,247,4.5,15.0,64,0.00,,,0.00,VWS V14.01,2013-06-23 16:02:00,
2013-06-23 12:07:00,84.9,71.8,30.13,South,177,7.5,9.0,65,0.00,,,0.00,VWS V14.01,2013-06-23 16:07:00,
2013-06-23 12:12:00,85.7,71.7,30.13,ENE,69,4.5,15.0,63,0.00,,,0.00,VWS V14.01,2013-06-23 16:12:00,
2013-06-23 12:17:00,86.0,71.5,30.13,SSW,213,7.5,9.0,62,0.00,,,0.00,VWS V14.01,2013-06-23 16:17:00,
2013-06-23 12:22:00,85.8,71.8,30.13,ESE,113,6.0,16.5,63,0.00,,,0.00,VWS V14.01,2013-06-23 16:22:00,
2013-06-23 12:27:00,86.4,71.4,30.12,ENE,65,3.0,9.0,61,0.00,,,0.00,VWS V14.01,2013-06-23 16:27:00,
2013-06-23 12:32:00,86.9,71.3,30.13,SSE,148,7.5,12.0,60,0.00,,,0.00,VWS V14.01,2013-06-23 16:32:00,
2013-06-23 12:37:00,86.9,70.9,30.12,WSW,247,12.0,13.5,59,0.00,,,0.00,VWS V14.01,2013-06-23 16:37:00,
2013-06-23 12:42:00,86.9,70.9,30.12,SW,223,4.5,10.5,59,0.00,,,0.00,VWS V14.01,2013-06-23 16:42:00,
2013-06-23 12:47:00,87.0,71.4,30.12,ENE,60,9.0,15.0,60,0.00,,,0.00,VWS V14.01,2013-06-23 16:47:00,
2013-06-23 12:52:00,87.5,70.9,30.12,WSW,244,6.0,6.0,58,0.00,,,0.00,VWS V14.01,2013-06-23 16:52:00,
2013-06-23 12:56:00,87.3,70.7,30.12,SSW,201,9.0,15.0,58,0.00,,,0.00,VWS V14.01,2013-06-23 16:56:00,
2013-06-23 12:57:00,87.3,70.7,30.12,East,95,7.5,15.0,58,0.00,,,0.00,VWS V14.01,2013-06-23 16:57:00,
2013-06-23 13:02:00,87.1,70.0,30.12,WSW,252,4.5,13.5,57,0.00,,,0.00,VWS V14.01,2013-06-23 17:02:00,
2013-06-23 13:07:00,86.9,71.3,30.12,South,175,7.5,18.0,60,0.00,,,0.00,VWS V14.01,2013-06-23 17:07:00,
2013-06-23 13:12:00,86.7,70.2,30.12,SW,216,4.5,10.5,58,0.00,,,0.00,VWS V14.01,2013-06-23 17:12:00,
2013-06-23 13:17:00,86.8,70.3,30.12,WNW,283,12.0,15.0,58,0.00,,,0.00,VWS V14.01,2013-06-23 17:17:00,
2013-06-23 13:22:00,86.7,70.2,30.12,West,265,4.5,13.5,58,0.00,,,0.00,VWS V14.01,2013-06-23 17:22:00,
2013-06-23 13:27:00,86.7,70.7,30.11,SW,229,7.5,10.5,59,0.00,,,0.00,VWS V14.01,2013-06-23 17:27:00,
2013-06-23 13:32:00,87.2,70.1,30.11,WSW,247,12.0,21.0,57,0.00,,,0.00,VWS V14.01,2013-06-23 17:32:00,
2013-06-23 13:37:00,87.1,71.0,30.11,West,267,9.0,13.5,59,0.00,,,0.00,VWS V14.01,2013-06-23 17:37:00,
2013-06-23 13:42:00,86.4,69.9,30.11,West,262,6.0,13.5,58,0.00,,,0.00,VWS V14.01,2013-06-23 17:42:00,
2013-06-23 13:47:00,85.7,69.7,30.11,SW,229,9.0,12.0,59,0.00,,,0.00,VWS V14.01,2013-06-23 17:47:00,
2013-06-23 13:52:00,86.5,69.5,30.11,South,181,4.5,9.0,57,0.00,,,0.00,VWS V14.01,2013-06-23 17:52:00,
2013-06-23 13:57:00,87.2,69.6,30.11,SSW,213,7.5,13.5,56,0.00,,,0.00,VWS V14.01,2013-06-23 17:57:00,
2013-06-23 14:02:00,87.2,70.1,30.11,SW,216,9.0,16.5,57,0.00,,,0.00,VWS V14.01,2013-06-23 18:02:00,
2013-06-23 14:07:00,87.8,69.6,30.11,SW,220,12.0,18.0,55,0.00,,,0.00,VWS V14.01,2013-06-23 18:07:00,
2013-06-23 14:12:00,87.9,68.7,30.11,WSW,239,6.0,12.0,53,0.00,,,0.00,VWS V14.01,2013-06-23 18:12:00,
2013-06-23 14:17:00,87.5,69.4,30.10,WSW,254,9.0,12.0,55,0.00,,,0.00,VWS V14.01,2013-06-23 18:17:00,
2013-06-23 14:22:00,86.6,69.1,30.11,West,279,10.5,15.0,56,0.00,,,0.00,VWS V14.01,2013-06-23 18:22:00,
2013-06-23 14:27:00,86.5,69.5,30.11,WSW,258,10.5,15.0,57,0.00,,,0.00,VWS V14.01,2013-06-23 18:27:00,
2013-06-23 14:32:00,86.7,69.7,30.11,SW,223,9.0,15.0,57,0.00,,,0.00,VWS V14.01,2013-06-23 18:32:00,
2013-06-23 14:37:00,87.0,69.4,30.11,WSW,239,9.0,12.0,56,0.00,,,0.00,VWS V14.01,2013-06-23 18:37:00,
2013-06-23 14:42:00,87.4,67.6,30.10,WSW,244,10.5,12.0,52,0.00,,,0.00,VWS V14.01,2013-06-23 18:42:00,
2013-06-23 14:47:00,87.5,68.3,30.10,SW,223,15.0,15.0,53,0.00,,,0.00,VWS V14.01,2013-06-23 18:47:00,
2013-06-23 14:52:00,87.3,68.6,30.10,WSW,252,10.5,12.0,54,0.00,,,0.00,VWS V14.01,2013-06-23 18:52:00,
2013-06-23 14:57:00,87.7,70.6,30.10,South,181,4.5,12.0,57,0.00,,,0.00,VWS V14.01,2013-06-23 18:57:00,
2013-06-23 15:02:00,88.7,69.9,30.10,SE,137,7.5,9.0,54,0.00,,,0.00,VWS V14.01,2013-06-23 19:02:00,
2013-06-23 15:07:00,89.0,70.2,30.10,WSW,248,10.5,15.0,54,0.00,,,0.00,VWS V14.01,2013-06-23 19:07:00,
2013-06-23 15:12:00,88.4,69.1,30.10,WSW,238,15.0,16.5,53,0.00,,,0.00,VWS V14.01,2013-06-23 19:12:00,
2013-06-23 15:17:00,87.9,69.2,30.10,WSW,257,7.5,18.0,54,0.00,,,0.00,VWS V14.01,2013-06-23 19:17:00,
2013-06-23 15:22:00,88.1,69.4,30.09,SW,234,6.0,9.0,54,0.00,,,0.00,VWS V14.01,2013-06-23 19:22:00,
2013-06-23 15:27:00,87.6,69.4,30.09,SW,215,6.0,9.0,55,0.00,,,0.00,VWS V14.01,2013-06-23 19:27:00,
2013-06-23 15:32:00,87.9,68.7,30.09,WSW,247,10.5,16.5,53,0.00,,,0.00,VWS V14.01,2013-06-23 19:32:00,
2013-06-23 15:37:00,87.8,68.6,30.09,SW,225,12.0,19.5,53,0.00,,,0.00,VWS V14.01,2013-06-23 19:37:00,
2013-06-23 15:42:00,87.9,68.1,30.09,West,278,7.5,12.0,52,0.00,,,0.00,VWS V14.01,2013-06-23 19:42:00,
2013-06-23 15:47:00,88.3,67.3,30.08,SE,145,12.0,18.0,50,0.00,,,0.00,VWS V14.01,2013-06-23 19:47:00,
2013-06-23 15:52:00,88.5,68.6,30.08,SW,231,10.5,12.0,52,0.00,,,0.00,VWS V14.01,2013-06-23 19:52:00,
2013-06-23 15:57:00,88.7,68.8,30.08,WSW,237,9.0,13.5,52,0.00,,,0.00,VWS V14.01,2013-06-23 19:57:00,
2013-06-23 16:02:00,89.0,68.5,30.08,SSW,204,10.5,12.0,51,0.00,,,0.00,VWS V14.01,2013-06-23 20:02:00,
2013-06-23 16:07:00,89.0,67.4,30.08,West,262,3.0,9.0,49,0.00,,,0.00,VWS V14.01,2013-06-23 20:07:00,
2013-06-23 16:12:00,89.5,68.4,30.08,WSW,239,9.0,12.0,50,0.00,,,0.00,VWS V14.01,2013-06-23 20:12:00,
2013-06-23 16:17:00,88.9,67.9,30.08,West,269,7.5,12.0,50,0.00,,,0.00,VWS V14.01,2013-06-23 20:17:00,
2013-06-23 16:22:00,88.5,68.1,30.08,West,262,12.0,12.0,51,0.00,,,0.00,VWS V14.01,2013-06-23 20:22:00,
2013-06-23 16:27:00,88.7,67.1,30.08,SW,225,6.0,10.5,49,0.00,,,0.00,VWS V14.01,2013-06-23 20:27:00,
2013-06-23 16:32:00,89.1,68.6,30.08,South,186,6.0,10.5,51,0.00,,,0.00,VWS V14.01,2013-06-23 20:32:00,
2013-06-23 16:37:00,88.6,67.6,30.08,South,191,6.0,15.0,50,0.00,,,0.00,VWS V14.01,2013-06-23 20:37:00,
2013-06-23 16:42:00,88.5,68.6,30.08,WSW,255,9.0,15.0,52,0.00,,,0.00,VWS V14.01,2013-06-23 20:42:00,
2013-06-23 16:47:00,88.5,68.1,30.07,SE,139,4.5,9.0,51,0.00,,,0.00,VWS V14.01,2013-06-23 20:47:00,
2013-06-23 16:51:00,88.8,68.4,30.08,West,265,7.5,9.0,51,0.00,,,0.00,VWS V14.01,2013-06-23 20:51:00,
2013-06-23 16:56:00,88.8,68.9,30.08,SW,234,4.5,15.0,52,0.00,,,0.00,VWS V14.01,2013-06-23 20:56:00,
2013-06-23 17:01:00,88.7,67.1,30.08,WSW,239,10.5,13.5,49,0.00,,,0.00,VWS V14.01,2013-06-23 21:01:00,
2013-06-23 17:06:00,88.5,68.1,30.08,SSW,210,9.0,16.5,51,0.00,,,0.00,VWS V14.01,2013-06-23 21:06:00,
2013-06-23 17:11:00,88.9,68.4,30.08,WSW,239,19.5,21.0,51,0.00,,,0.00,VWS V14.01,2013-06-23 21:11:00,
2013-06-23 17:16:00,88.5,66.9,30.08,SSW,206,7.5,19.5,49,0.00,,,0.00,VWS V14.01,2013-06-23 21:16:00,
2013-06-23 17:21:00,88.6,68.2,30.08,SW,218,16.5,16.5,51,0.00,,,0.00,VWS V14.01,2013-06-23 21:21:00,
2013-06-23 17:26:00,88.9,69.0,30.07,SE,136,7.5,12.0,52,0.00,,,0.00,VWS V14.01,2013-06-23 21:26:00,
2013-06-23 17:31:00,88.7,67.7,30.07,WSW,254,7.5,16.5,50,0.00,,,0.00,VWS V14.01,2013-06-23 21:31:00,
2013-06-23 17:36:00,88.4,67.4,30.07,WSW,237,9.0,18.0,50,0.00,,,0.00,VWS V14.01,2013-06-23 21:36:00,
2013-06-23 17:41:00,88.3,67.3,30.06,West,274,10.5,15.0,50,0.00,,,0.00,VWS V14.01,2013-06-23 21:41:00,
2013-06-23 17:46:00,88.3,66.7,30.06,WSW,247,12.0,13.5,49,0.00,,,0.00,VWS V14.01,2013-06-23 21:46:00,
2013-06-23 17:51:00,88.2,66.7,30.06,SW,227,12.0,15.0,49,0.00,,,0.00,VWS V14.01,2013-06-23 21:51:00,
2013-06-23 17:56:00,87.8,66.3,30.06,WSW,243,9.0,15.0,49,0.00,,,0.00,VWS V14.01,2013-06-23 21:56:00,
2013-06-23 18:01:00,87.8,66.9,30.06,WSW,237,6.0,12.0,50,0.00,,,0.00,VWS V14.01,2013-06-23 22:01:00,
2013-06-23 18:06:00,87.5,67.2,30.06,WSW,254,6.0,12.0,51,0.00,,,0.00,VWS V14.01,2013-06-23 22:06:00,
2013-06-23 18:11:00,87.2,67.4,30.06,SSW,212,4.5,7.5,52,0.00,,,0.00,VWS V14.01,2013-06-23 22:11:00,
2013-06-23 18:16:00,86.9,67.7,30.05,WSW,246,12.0,12.0,53,0.00,,,0.00,VWS V14.01,2013-06-23 22:16:00,
2013-06-23 18:21:00,86.5,67.3,30.05,WSW,237,3.0,4.5,53,0.00,,,0.00,VWS V14.01,2013-06-23 22:21:00,
2013-06-23 18:26:00,86.5,67.3,30.06,WSW,250,7.5,9.0,53,0.00,,,0.00,VWS V14.01,2013-06-23 22:26:00,
2013-06-23 18:31:00,86.3,67.2,30.05,SW,227,4.5,7.5,53,0.00,,,0.00,VWS V14.01,2013-06-23 22:31:00,
2013-06-23 18:36:00,86.2,67.6,30.05,West,279,6.0,10.5,54,0.00,,,0.00,VWS V14.01,2013-06-23 22:36:00,
2013-06-23 18:41:00,86.1,68.6,30.06,WNW,291,3.0,7.5,56,0.00,,,0.00,VWS V14.01,2013-06-23 22:41:00,
2013-06-23 18:46:00,86.0,67.4,30.06,West,261,4.5,9.0,54,0.00,,,0.00,VWS V14.01,2013-06-23 22:46:00,
2013-06-23 18:51:00,85.8,67.8,30.06,WSW,237,10.5,10.5,55,0.00,,,0.00,VWS V14.01,2013-06-23 22:51:00,
2013-06-23 18:56:00,85.6,67.6,30.06,SW,236,9.0,9.0,55,0.00,,,0.00,VWS V14.01,2013-06-23 22:56:00,
2013-06-23 19:01:00,85.5,68.0,30.06,SW,229,10.5,10.5,56,0.00,,,0.00,VWS V14.01,2013-06-23 23:01:00,
2013-06-23 19:06:00,85.2,68.3,30.06,WSW,258,4.5,9.0,57,0.00,,,0.00,VWS V14.01,2013-06-23 23:06:00,
2013-06-23 19:11:00,85.1,68.7,30.06,WSW,258,7.5,9.0,58,0.00,,,0.00,VWS V14.01,2013-06-23 23:11:00,
2013-06-23 19:16:00,85.1,68.7,30.06,WNW,288,4.5,6.0,58,0.00,,,0.00,VWS V14.01,2013-06-23 23:16:00,
2013-06-23 19:21:00,85.2,68.3,30.06,SW,227,4.5,9.0,57,0.00,,,0.00,VWS V14.01,2013-06-23 23:21:00,
2013-06-23 19:26:00,85.2,68.3,30.06,West,259,3.0,7.5,57,0.00,,,0.00,VWS V14.01,2013-06-23 23:26:00,
2013-06-23 19:31:00,85.4,69.0,30.05,West,260,3.0,7.5,58,0.00,,,0.00,VWS V14.01,2013-06-23 23:31:00,
2013-06-23 19:36:00,85.6,68.6,30.05,WSW,249,6.0,9.0,57,0.00,,,0.00,VWS V14.01,2013-06-23 23:36:00,
2013-06-23 19:41:00,85.6,68.6,30.05,WSW,252,7.5,9.0,57,0.00,,,0.00,VWS V14.01,2013-06-23 23:41:00,
2013-06-23 19:46:00,85.5,68.5,30.05,West,276,6.0,6.0,57,0.00,,,0.00,VWS V14.01,2013-06-23 23:46:00,
2013-06-23 19:51:00,85.5,69.6,30.05,WSW,240,3.0,4.5,59,0.00,,,0.00,VWS V14.01,2013-06-23 23:51:00,
2013-06-23 19:56:00,85.5,69.6,30.06,SW,234,6.0,6.0,59,0.00,,,0.00,VWS V14.01,2013-06-23 23:56:00,
2013-06-23 20:01:00,85.5,69.1,30.06,SW,226,6.0,6.0,58,0.00,,,0.00,VWS V14.01,2013-06-24 00:01:00,
2013-06-23 20:06:00,85.3,68.9,30.06,SW,236,3.0,4.5,58,0.00,,,0.00,VWS V14.01,2013-06-24 00:06:00,
2013-06-23 20:11:00,85.3,69.8,30.07,SW,231,1.5,3.0,60,0.00,,,0.00,VWS V14.01,2013-06-24 00:11:00,
2013-06-23 20:16:00,85.3,68.9,30.07,SSW,213,6.0,7.5,58,0.00,,,0.00,VWS V14.01,2013-06-24 00:16:00,
2013-06-23 20:21:00,84.9,69.5,30.07,SSW,213,3.0,4.5,60,0.00,,,0.00,VWS V14.01,2013-06-24 00:21:00,
2013-06-23 20:26:00,84.6,69.7,30.07,SSW,198,6.0,7.5,61,0.00,,,0.00,VWS V14.01,2013-06-24 00:26:00,
2013-06-23 20:31:00,84.3,69.9,30.07,West,271,4.5,6.0,62,0.00,,,0.00,VWS V14.01,2013-06-24 00:31:00,
2013-06-23 20:36:00,83.9,70.0,30.07,SW,229,1.5,4.5,63,0.00,,,0.00,VWS V14.01,2013-06-24 00:36:00,
2013-06-23 20:41:00,83.4,69.9,30.07,SW,223,1.5,4.5,64,0.00,,,0.00,VWS V14.01,2013-06-24 00:41:00,
2013-06-23 20:46:00,83.1,70.1,30.07,SW,223,1.5,1.5,65,0.00,,,0.00,VWS V14.01,2013-06-24 00:46:00,
2013-06-23 20:51:00,82.8,70.3,30.07,SSW,213,1.5,1.5,66,0.00,,,0.00,VWS V14.01,2013-06-24 00:51:00,
2013-06-23 20:56:00,82.3,70.7,30.07,North,360,4.5,4.5,68,0.00,,,0.00,VWS V14.01,2013-06-24 00:56:00,
2013-06-23 21:01:00,81.3,71.4,30.08,North,2,1.5,1.5,72,0.00,,,0.00,VWS V14.01,2013-06-24 01:01:00,
2013-06-23 21:06:00,80.5,71.5,30.08,North,349,3.0,3.0,74,0.00,,,0.00,VWS V14.01,2013-06-24 01:06:00,
2013-06-23 21:11:00,80.0,71.4,30.08,NNE,14,3.0,4.5,75,0.00,,,0.00,VWS V14.01,2013-06-24 01:11:00,
2013-06-23 21:16:00,79.4,71.2,30.08,SSE,167,3.0,3.0,76,0.00,,,0.00,VWS V14.01,2013-06-24 01:16:00,
2013-06-23 21:21:00,79.1,71.3,30.08,SE,136,1.5,1.5,77,0.00,,,0.00,VWS V14.01,2013-06-24 01:21:00,
2013-06-23 21:26:00,78.9,71.1,30.08,SE,133,1.5,1.5,77,0.00,,,0.00,VWS V14.01,2013-06-24 01:26:00,
2013-06-23 21:31:00,78.6,71.2,30.08,SE,132,1.5,1.5,78,0.00,,,0.00,VWS V14.01,2013-06-24 01:31:00,
2013-06-23 21:36:00,78.4,71.3,30.09,SSW,213,1.5,3.0,79,0.00,,,0.00,VWS V14.01,2013-06-24 01:36:00,
2013-06-23 21:41:00,78.3,70.9,30.09,SSW,213,1.5,3.0,78,0.00,,,0.00,VWS V14.01,2013-06-24 01:41:00,
2013-06-23 21:46:00,78.0,71.0,30.09,SSW,212,1.5,1.5,79,0.00,,,0.00,VWS V14.01,2013-06-24 01:46:00,
2013-06-23 21:51:00,77.6,70.9,30.09,SSW,212,1.5,1.5,80,0.00,,,0.00,VWS V14.01,2013-06-24 01:51:00,
2013-06-23 21:56:00,77.2,70.6,30.09,SSW,212,1.5,1.5,80,0.00,,,0.00,VWS V14.01,2013-06-24 01:56:00,
2013-06-23 22:01:00,77.1,70.8,30.09,SW,228,1.5,3.0,81,0.00,,,0.00,VWS V14.01,2013-06-24 02:01:00,
2013-06-23 22:06:00,77.0,70.7,30.09,SSW,213,1.5,3.0,81,0.00,,,0.00,VWS V14.01,2013-06-24 02:06:00,
2013-06-23 22:11:00,77.0,70.7,30.10,SW,215,1.5,1.5,81,0.00,,,0.00,VWS V14.01,2013-06-24 02:11:00,
2013-06-23 22:16:00,76.8,70.9,30.10,SW,231,1.5,1.5,82,0.00,,,0.00,VWS V14.01,2013-06-24 02:16:00,
2013-06-23 22:21:00,76.5,70.6,30.10,SW,231,1.5,1.5,82,0.00,,,0.00,VWS V14.01,2013-06-24 02:21:00,
2013-06-23 22:26:00,76.4,70.9,30.11,SW,231,1.5,1.5,83,0.00,,,0.00,VWS V14.01,2013-06-24 02:26:00,
2013-06-23 22:31:00,76.1,70.6,30.11,SW,231,1.5,3.0,83,0.00,,,0.00,VWS V14.01,2013-06-24 02:31:00,
2013-06-23 22:36:00,75.7,70.2,30.11,SSW,212,1.5,1.5,83,0.00,,,0.00,VWS V14.01,2013-06-24 02:36:00,
2013-06-23 22:41:00,75.5,70.3,30.11,SSW,212,1.5,1.5,84,0.00,,,0.00,VWS V14.01,2013-06-24 02:41:00,
2013-06-23 22:46:00,75.3,70.1,30.11,SSW,212,1.5,1.5,84,0.00,,,0.00,VWS V14.01,2013-06-24 02:46:00,
2013-06-23 22:47:00,75.3,70.1,30.11,SSW,212,1.5,1.5,84,0.00,,,0.00,VWS V14.01,2013-06-24 02:47:00,
2013-06-23 22:48:00,75.3,70.1,30.11,SSW,212,1.5,1.5,84,0.00,,,0.00,VWS V14.01,2013-06-24 02:48:00,
2013-06-23 22:49:00,75.3,70.1,30.11,SSW,212,1.5,1.5,84,0.00,,,0.00,VWS V14.01,2013-06-24 02:49:00,
2013-06-23 22:50:00,75.2,70.0,30.11,SSW,212,1.5,1.5,84,0.00,,,0.00,VWS V14.01,2013-06-24 02:50:00,
2013-06-23 22:51:00,75.2,70.0,30.11,SSW,212,1.5,1.5,84,0.00,,,0.00,VWS V14.01,2013-06-24 02:51:00,
2013-06-23 22:52:00,75.2,70.0,30.11,SSW,212,1.5,1.5,84,0.00,,,0.00,VWS V14.01,2013-06-24 02:52:00,
2013-06-23 22:53:00,75.2,70.0,30.11,SSW,212,1.5,1.5,84,0.00,,,0.00,VWS V14.01,2013-06-24 02:53:00,
2013-06-23 22:56:00,75.1,70.3,30.11,SSW,212,1.5,1.5,85,0.00,,,0.00,VWS V14.01,2013-06-24 02:56:00,
2013-06-23 22:57:00,75.0,70.2,30.11,SSW,212,1.5,1.5,85,0.00,,,0.00,VWS V14.01,2013-06-24 02:57:00,
2013-06-23 22:58:00,75.0,70.2,30.11,SSW,212,1.5,1.5,85,0.00,,,0.00,VWS V14.01,2013-06-24 02:58:00,
2013-06-23 23:00:00,74.9,70.1,30.11,SSW,212,1.5,1.5,85,0.00,,,0.00,VWS V14.01,2013-06-24 03:00:00,
2013-06-23 23:01:00,74.8,70.0,30.11,SSW,212,1.5,1.5,85,0.00,,,0.00,VWS V14.01,2013-06-24 03:01:00,
2013-06-23 23:02:00,74.8,70.0,30.11,SSW,212,1.5,1.5,85,0.00,,,0.00,VWS V14.01,2013-06-24 03:02:00,
2013-06-23 23:03:00,74.7,69.9,30.11,SSW,212,1.5,1.5,85,0.00,,,0.00,VWS V14.01,2013-06-24 03:03:00,
2013-06-23 23:04:00,74.7,69.9,30.11,SSW,212,1.5,1.5,85,0.00,,,0.00,VWS V14.01,2013-06-24 03:04:00,
2013-06-23 23:06:00,74.6,70.1,30.11,SSW,212,1.5,1.5,86,0.00,,,0.00,VWS V14.01,2013-06-24 03:06:00,
2013-06-23 23:07:00,74.6,70.1,30.11,SW,217,1.5,1.5,86,0.00,,,0.00,VWS V14.01,2013-06-24 03:07:00,
2013-06-23 23:08:00,74.6,70.1,30.11,SW,217,1.5,1.5,86,0.00,,,0.00,VWS V14.01,2013-06-24 03:08:00,
2013-06-23 23:09:00,74.6,70.1,30.11,SW,217,1.5,1.5,86,0.00,,,0.00,VWS V14.01,2013-06-24 03:09:00,
2013-06-23 23:10:00,74.6,70.1,30.11,SW,217,1.5,1.5,86,0.00,,,0.00,VWS V14.01,2013-06-24 03:10:00,
2013-06-23 23:11:00,74.6,70.1,30.11,SW,217,1.5,1.5,86,0.00,,,0.00,VWS V14.01,2013-06-24 03:11:00,
2013-06-23 23:12:00,74.6,70.1,30.11,SW,217,1.5,1.5,86,0.00,,,0.00,VWS V14.01,2013-06-24 03:12:00,
2013-06-23 23:13:00,74.6,70.1,30.11,SW,217,1.5,1.5,86,0.00,,,0.00,VWS V14.01,2013-06-24 03:13:00,
2013-06-23 23:14:00,74.6,70.1,30.11,SW,217,1.5,1.5,86,0.00,,,0.00,VWS V14.01,2013-06-24 03:14:00,
2013-06-23 23:15:00,74.5,70.0,30.11,SW,217,1.5,1.5,86,0.00,,,0.00,VWS V14.01,2013-06-24 03:15:00,
2013-06-23 23:16:00,74.5,70.0,30.11,SW,217,1.5,1.5,86,0.00,,,0.00,VWS V14.01,2013-06-24 03:16:00,
2013-06-23 23:19:00,74.4,69.9,30.11,SW,217,1.5,1.5,86,0.00,,,0.00,VWS V14.01,2013-06-24 03:19:00,
2013-06-23 23:21:00,74.4,69.9,30.11,SW,217,1.5,1.5,86,0.00,,,0.00,VWS V14.01,2013-06-24 03:21:00,
2013-06-23 23:22:00,74.4,69.9,30.11,SW,217,1.5,1.5,86,0.00,,,0.00,VWS V14.01,2013-06-24 03:22:00,
2013-06-23 23:23:00,74.3,69.8,30.11,SW,217,1.5,1.5,86,0.00,,,0.00,VWS V14.01,2013-06-24 03:23:00,
2013-06-23 23:24:00,74.3,70.2,30.11,SW,217,1.5,1.5,87,0.00,,,0.00,VWS V14.01,2013-06-24 03:24:00,
2013-06-23 23:25:00,74.3,70.2,30.11,SW,217,1.5,1.5,87,0.00,,,0.00,VWS V14.01,2013-06-24 03:25:00,
2013-06-23 23:26:00,74.2,70.1,30.11,SW,217,1.5,1.5,87,0.00,,,0.00,VWS V14.01,2013-06-24 03:26:00,
2013-06-23 23:27:00,74.2,70.1,30.11,SW,217,1.5,1.5,87,0.00,,,0.00,VWS V14.01,2013-06-24 03:27:00,
2013-06-23 23:28:00,74.1,70.0,30.11,SW,217,1.5,1.5,87,0.00,,,0.00,VWS V14.01,2013-06-24 03:28:00,
2013-06-23 23:29:00,74.1,70.0,30.12,SW,217,1.5,1.5,87,0.00,,,0.00,VWS V14.01,2013-06-24 03:29:00,
2013-06-23 23:30:00,74.1,70.0,30.12,SW,217,1.5,1.5,87,0.00,,,0.00,VWS V14.01,2013-06-24 03:30:00,
2013-06-23 23:31:00,74.1,70.0,30.12,SW,217,1.5,1.5,87,0.00,,,0.00,VWS V14.01,2013-06-24 03:31:00,
2013-06-23 23:32:00,74.0,69.9,30.12,SW,217,1.5,1.5,87,0.00,,,0.00,VWS V14.01,2013-06-24 03:32:00,
2013-06-23 23:33:00,74.0,69.9,30.12,SW,217,1.5,1.5,87,0.00,,,0.00,VWS V14.01,2013-06-24 03:33:00,
2013-06-23 23:34:00,74.0,70.2,30.12,SW,217,1.5,1.5,88,0.00,,,0.00,VWS V14.01,2013-06-24 03:34:00,
2013-06-23 23:35:00,73.9,70.1,30.12,SW,217,1.5,1.5,88,0.00,,,0.00,VWS V14.01,2013-06-24 03:35:00,
2013-06-23 23:36:00,73.9,70.1,30.12,SW,217,1.5,1.5,88,0.00,,,0.00,VWS V14.01,2013-06-24 03:36:00,
2013-06-23 23:39:00,73.7,69.9,30.12,SW,217,1.5,1.5,88,0.00,,,0.00,VWS V14.01,2013-06-24 03:39:00,
2013-06-23 23:40:00,73.7,69.9,30.12,SW,217,1.5,1.5,88,0.00,,,0.00,VWS V14.01,2013-06-24 03:40:00,
2013-06-23 23:41:00,73.6,69.8,30.12,SW,217,1.5,1.5,88,0.00,,,0.00,VWS V14.01,2013-06-24 03:41:00,
2013-06-23 23:42:00,73.6,69.8,30.12,SW,217,1.5,1.5,88,0.00,,,0.00,VWS V14.01,2013-06-24 03:42:00,
2013-06-23 23:43:00,73.6,70.2,30.12,SW,217,1.5,1.5,89,0.00,,,0.00,VWS V14.01,2013-06-24 03:43:00,
2013-06-23 23:45:00,73.5,70.1,30.12,SW,217,1.5,1.5,89,0.00,,,0.00,VWS V14.01,2013-06-24 03:45:00,
2013-06-23 23:46:00,73.5,70.1,30.12,SW,217,1.5,1.5,89,0.00,,,0.00,VWS V14.01,2013-06-24 03:46:00,
2013-06-23 23:47:00,73.5,70.1,30.12,SW,217,1.5,1.5,89,0.00,,,0.00,VWS V14.01,2013-06-24 03:47:00,
2013-06-23 23:48:00,73.5,70.1,30.12,SW,217,1.5,1.5,89,0.00,,,0.00,VWS V14.01,2013-06-24 03:48:00,
2013-06-23 23:50:00,73.4,70.0,30.12,SW,227,1.5,1.5,89,0.00,,,0.00,VWS V14.01,2013-06-24 03:50:00,
2013-06-23 23:51:00,73.4,70.0,30.12,SW,228,1.5,1.5,89,0.00,,,0.00,VWS V14.01,2013-06-24 03:51:00,
2013-06-23 23:52:00,73.4,70.0,30.12,SW,227,1.5,1.5,89,0.00,,,0.00,VWS V14.01,2013-06-24 03:52:00,
2013-06-23 23:53:00,73.4,70.0,30.12,SW,227,1.5,1.5,89,0.00,,,0.00,VWS V14.01,2013-06-24 03:53:00,
2013-06-23 23:55:00,73.3,69.9,30.12,SW,228,1.5,3.0,89,0.00,,,0.00,VWS V14.01,2013-06-24 03:55:00,
2013-06-23 23:56:00,73.3,70.2,30.12,SSE,150,3.0,3.0,90,0.00,,,0.00,VWS V14.01,2013-06-24 03:56:00,
2013-06-23 23:57:00,73.3,70.2,30.12,SSE,150,3.0,3.0,90,0.00,,,0.00,VWS V14.01,2013-06-24 03:57:00,
2013-06-23 23:58:00,73.3,70.2,30.12,SSE,147,1.5,3.0,90,0.00,,,0.00,VWS V14.01,2013-06-24 03:58:00,
2013-06-23 23:59:00,73.4,70.3,30.12,SSE,147,1.5,3.0,90,0.00,,,0.00,VWS V14.01,2013-06-24 03:59:00,